GFSSW_700_temp_045.txt.gz
Temp
12 12 12 12 12 13 13 13 13 13 13 13 14 14 15 15 15 15 14 15 15 15 16 16 16 16 16 17 16 16 15 17 20 19 19 18 18 17 16 16 14 14 14 14 14
12 12 12 12 13 13 13 13 13 13 13 13 13 14 14 15 15 15 14 15 15 15 15 16 16 16 16 16 17 18 14 18 19 19 19 18 18 17 17 16 15 15 15 15 14
11 12 12 12 13 13 13 13 13 13 13 13 13 14 14 14 15 14 14 15 15 15 16 15 15 15 16 17 18 18 17 19 19 18 18 19 18 18 18 17 16 15 16 15 14
11 12 12 12 13 13 13 13 13 13 14 14 14 14 14 14 15 14 15 15 15 15 16 16 16 16 17 18 18 18 19 18 19 18 18 19 19 18 18 17 16 15 16 15 14
11 12 12 12 12 13 13 13 13 13 14 14 14 14 14 14 14 14 15 15 16 16 16 15 16 16 17 18 18 18 19 18 19 19 18 18 18 18 18 17 16 16 15 15 14
11 11 12 12 12 12 13 13 13 13 13 14 14 14 14 13 14 14 15 15 15 15 15 15 16 16 17 18 18 19 18 19 19 19 18 18 19 18 18 17 16 17 16 15 12
11 11 12 12 12 13 13 13 13 13 13 14 14 14 14 13 14 14 15 15 16 15 15 15 15 16 17 18 18 18 18 19 19 19 19 19 19 19 18 17 16 15 15 14 14
11 11 11 12 12 12 13 13 13 13 14 14 14 14 13 14 14 14 15 15 15 15 16 15 16 16 17 18 18 18 19 20 20 19 19 19 18 18 18 17 16 15 14 13 15
11 11 11 12 12 12 13 13 13 13 14 14 14 14 14 15 15 14 14 14 14 14 15 16 16 16 17 17 18 19 20 19 20 19 19 19 19 18 19 18 17 15 14 13 13
10 11 11 11 12 12 12 13 13 13 13 14 14 14 14 14 13 15 15 15 14 14 15 15 16 17 17 18 20 21 21 20 20 20 19 20 20 20 18 18 17 16 15 13 12
10 10 11 11 12 12 12 12 13 13 13 13 13 14 14 14 14 15 14 15 15 14 16 16 17 18 18 19 19 19 20 20 20 19 19 20 19 19 18 18 18 17 15 14 13
10 10 11 11 11 11 12 12 12 13 13 13 14 14 14 14 14 14 14 14 14 15 16 16 17 18 18 18 19 19 19 19 20 19 19 19 20 19 18 18 18 18 16 14 14
9 10 10 10 11 11 11 12 12 12 13 14 14 14 14 14 14 15 14 14 15 15 16 17 18 18 17 18 18 18 19 19 20 19 19 19 20 19 18 17 17 17 16 14 14
9 10 10 10 10 11 11 11 11 12 12 15 14 14 14 14 14 14 14 15 15 16 16 17 17 17 17 17 18 18 19 19 19 19 20 19 21 20 18 18 17 16 16 14 13
9 9 10 10 10 10 11 11 11 11 15 15 14 14 14 14 15 15 14 14 15 16 16 17 17 17 17 17 18 18 19 19 18 19 19 20 20 20 19 18 17 16 15 14 13
8 9 9 10 10 10 10 10 11 11 15 14 14 14 14 14 15 15 14 14 15 15 15 16 16 17 17 17 17 18 18 18 18 19 20 20 20 21 19 18 18 16 13 15 14
8 8 9 9 10 10 10 10 10 13 14 15 15 14 15 15 15 15 14 14 15 15 16 16 16 16 17 17 17 17 18 19 20 21 21 20 19 20 18 17 16 16 13 15 14
8 8 9 9 9 9 9 8 11 14 14 14 14 15 15 16 15 15 15 15 15 16 17 17 18 17 17 17 18 17 18 20 20 21 21 19 20 19 17 16 15 15 15 15 14
7 8 8 9 8 8 9 9 11 13 14 14 14 14 16 16 16 15 15 16 16 16 16 18 18 18 17 17 17 18 18 19 19 20 20 20 19 18 17 16 16 15 13 15 15
7 7 7 8 8 8 7 9 12 12 11 12 13 15 16 16 15 16 16 16 16 16 16 17 17 18 17 17 17 17 18 18 18 19 20 20 19 19 18 17 16 15 14 14 15
7 6 7 8 7 7 8 10 11 10 10 11 13 14 14 15 15 16 16 16 16 16 16 16 16 18 17 16 17 17 17 18 19 19 20 18 18 18 17 17 16 15 14 15 15
6 6 6 7 6 7 8 10 9 9 9 10 10 12 13 14 14 15 16 16 16 16 16 16 16 17 17 17 17 18 18 18 18 19 19 19 16 17 17 16 16 15 13 13 13
5 5 6 6 7 8 8 8 8 8 9 10 10 11 12 12 13 14 15 15 14 15 16 16 16 17 17 17 17 17 17 18 18 18 18 19 18 17 16 15 15 14 15 15 14
4 5 4 6 6 7 8 7 8 7 8 9 10 11 11 11 12 13 14 14 13 14 15 15 16 16 18 18 18 17 17 17 17 18 18 18 16 16 15 15 15 16 15 15 14
3 6 5 6 6 7 7 7 8 8 7 8 9 9 10 11 12 13 13 14 13 13 14 14 14 15 16 17 17 18 17 17 17 17 18 17 13 13 14 15 14 15 15 15 14
3 4 4 5 4 5 6 7 7 8 8 8 8 10 10 10 11 13 13 14 14 14 13 14 14 14 15 16 17 17 17 17 17 17 17 17 16 15 13 15 15 15 14 14 13
4 4 4 5 5 6 7 7 7 7 7 7 9 9 10 10 10 11 11 11 12 12 13 13 14 14 15 16 16 17 17 17 17 17 17 17 15 13 15 15 14 14 13 12 12

GFSSW_700_temp_048.txt.gz
Temp
12 12 12 12 12 12 13 13 13 13 14 14 14 14 15 15 15 15 15 15 15 15 16 16 16 16 17 17 16 16 17 17 18 18 19 17 16 17 16 16 15 15 14 14 15
12 12 12 12 12 13 13 13 13 13 14 14 14 14 14 15 15 15 15 15 15 16 16 16 16 16 16 17 18 17 16 17 18 20 19 19 18 16 17 15 15 14 16 15 15
11 12 12 12 12 13 13 13 13 14 14 14 14 14 14 15 15 14 14 15 15 16 16 16 16 16 17 17 19 16 16 18 19 19 19 19 17 18 16 15 16 15 16 16 15
11 12 12 12 12 13 13 13 13 14 14 14 14 14 15 15 14 14 14 15 15 15 16 16 16 16 17 18 19 19 18 19 20 19 20 20 19 18 18 17 17 17 16 16 15
11 12 12 12 12 13 13 13 13 13 14 14 14 14 15 14 14 14 15 15 16 16 16 16 16 17 17 18 19 19 19 20 20 20 19 19 19 19 19 17 17 17 17 16 15
11 11 12 12 13 13 13 13 13 13 14 14 14 14 14 14 14 15 15 15 15 16 16 16 16 17 17 18 19 19 19 20 20 20 19 19 20 19 18 18 17 16 16 14 13
11 11 12 12 12 13 13 13 13 13 14 14 14 14 14 15 14 14 15 15 14 15 16 16 16 16 17 18 19 19 19 20 20 20 20 20 19 19 18 15 17 16 15 14 13
11 11 12 12 12 13 13 13 13 13 13 14 14 14 15 14 14 15 15 14 14 14 15 15 15 16 17 18 18 19 19 18 15 20 20 20 18 19 18 15 16 16 15 14 13
11 11 12 12 12 12 13 13 13 13 13 14 14 14 14 14 15 15 14 15 15 15 15 15 16 16 17 18 19 19 20 18 18 18 20 20 19 19 19 17 18 17 16 15 13
11 11 11 12 12 12 13 13 13 13 13 14 14 14 15 15 15 14 14 14 15 15 16 15 16 16 17 18 19 19 16 17 18 19 20 20 21 20 19 19 19 18 17 15 14
10 11 11 11 12 12 12 13 13 13 13 14 14 14 15 14 14 15 14 14 15 15 16 17 17 18 18 19 19 20 19 17 17 18 20 20 20 20 19 19 19 18 17 16 14
10 10 11 11 12 12 12 12 12 13 13 14 13 14 14 14 14 15 15 15 15 16 16 17 18 18 19 19 20 20 20 19 20 20 20 20 20 20 20 19 19 18 18 16 14
9 10 10 11 11 11 12 12 12 12 13 15 14 14 14 14 14 15 15 15 16 16 17 18 18 19 19 19 19 19 19 20 20 20 20 20 20 20 19 19 18 18 17 16 15
9 9 10 10 10 11 11 12 12 12 12 14 15 15 15 15 15 15 16 15 16 16 17 17 18 18 18 18 18 19 19 20 20 20 20 20 21 19 19 19 18 17 17 15 15
9 9 10 10 10 10 11 11 11 12 14 17 16 15 15 15 16 15 16 15 16 17 17 18 18 18 18 18 18 19 19 20 20 20 20 20 21 18 18 19 17 16 16 15 14
8 9 9 10 10 10 11 11 11 11 14 16 16 15 15 15 15 16 15 15 16 16 17 17 18 18 18 18 18 19 19 19 19 20 20 20 21 19 18 17 17 15 15 14 15
8 8 9 9 9 10 10 10 10 12 15 16 16 16 15 16 16 16 16 16 16 16 16 17 17 18 17 18 18 18 19 19 19 20 21 21 21 20 18 17 17 15 15 15 15
8 8 8 9 10 9 10 9 11 13 14 16 16 17 16 16 16 16 16 16 16 16 17 18 18 18 18 18 19 18 19 19 19 20 19 17 19 19 18 17 16 15 15 16 16
8 8 8 8 9 9 9 9 11 13 15 16 16 16 17 17 17 17 17 17 17 16 17 18 19 19 18 18 18 19 19 19 19 20 20 18 18 18 18 17 16 14 14 13 15
7 8 6 8 8 8 8 9 11 13 14 14 15 16 16 17 17 17 17 17 17 17 17 17 18 18 19 18 18 18 19 19 19 19 19 21 18 16 16 17 16 15 14 13 15
7 7 6 7 8 7 7 9 11 12 12 12 13 14 15 16 17 17 17 17 17 17 17 17 17 18 19 18 18 18 18 19 19 20 17 17 15 16 14 13 16 16 14 13 12
7 6 7 7 7 7 8 9 11 12 11 11 12 13 14 15 16 16 17 17 17 17 17 17 17 17 18 19 18 18 18 18 19 19 19 19 17 17 16 17 16 15 16 13 13
6 6 6 6 7 8 9 10 11 11 11 11 11 12 13 14 14 15 16 16 16 17 17 17 17 17 17 17 18 18 18 19 19 18 18 17 17 16 17 16 16 15 15 13 13
5 6 6 7 7 8 9 10 10 9 10 10 11 12 12 13 13 14 14 16 15 15 16 16 16 17 17 18 19 18 18 18 18 18 19 18 15 15 15 14 12 14 14 15 14
5 6 7 7 7 7 8 9 10 10 10 9 10 11 11 12 12 13 14 14 15 15 15 15 15 16 16 17 17 18 18 18 18 18 18 17 16 15 15 14 11 13 15 14 14
4 5 5 7 6 8 8 8 8 9 9 10 9 10 10 11 11 13 13 14 14 15 14 14 15 15 15 16 17 17 17 16 17 18 18 18 16 15 16 15 15 12 14 15 14
3 4 5 6 7 7 8 8 8 9 9 9 9 10 10 11 11 12 12 12 12 13 13 14 14 14 15 16 16 17 17 18 18 18 18 17 16 15 14 14 12 12 12 14 13

GFSSW_700_temp_051.txt.gz
Temp
12 12 12 12 12 13 13 13 13 14 14 14 14 14 15 15 15 15 15 15 15 16 16 16 16 17 17 17 16 16 17 17 16 16 16 17 18 18 17 16 15 15 16 15 14
12 12 12 12 13 13 13 13 13 14 14 14 14 14 14 15 15 15 15 15 15 15 16 16 17 16 16 16 17 17 18 18 18 17 17 17 17 17 17 18 16 16 16 15 15
11 12 12 12 12 13 13 13 13 14 14 14 14 14 14 15 15 15 15 15 15 15 15 16 16 16 17 17 17 17 18 19 19 18 17 18 18 18 17 17 18 17 16 16 15
11 12 12 12 12 13 13 13 13 14 14 14 14 14 15 14 14 14 14 15 15 15 15 16 16 17 17 17 18 18 18 19 19 19 18 18 18 18 16 16 15 15 15 15 15
11 12 12 12 12 13 13 13 13 14 14 14 14 14 15 14 14 14 14 15 15 16 16 16 16 16 16 17 18 18 18 19 19 20 19 19 19 17 16 17 15 14 15 14 13
11 11 12 12 12 13 13 13 13 14 14 14 14 14 15 14 14 14 15 15 15 16 16 16 16 16 17 17 18 18 19 19 19 20 19 20 18 18 18 19 16 14 15 14 12
11 11 12 12 12 13 13 13 13 14 14 14 14 14 15 15 14 15 15 15 16 16 16 16 16 16 16 17 18 18 19 19 19 20 19 19 19 19 19 19 18 15 14 14 12
11 11 12 12 12 12 13 13 13 13 14 14 14 14 15 15 15 15 15 15 15 15 16 16 16 16 16 17 17 18 18 18 19 19 20 19 19 20 19 18 17 16 14 14 13
11 11 11 12 12 12 13 13 13 13 14 14 14 14 15 15 15 15 15 15 15 15 16 15 15 16 17 17 17 17 18 18 18 17 18 18 19 19 19 18 17 16 14 14 14
11 11 11 12 12 12 13 13 13 13 14 14 14 14 14 15 14 14 15 15 15 15 15 15 15 16 16 17 17 18 18 18 17 18 18 19 19 19 19 18 18 16 15 15 15
10 11 11 11 12 12 12 13 13 13 14 14 13 14 14 14 15 15 15 14 14 15 15 16 16 16 17 17 18 18 18 18 18 19 18 20 20 20 19 19 17 17 17 15 15
10 11 11 11 11 12 12 12 13 13 14 14 14 15 15 14 15 14 15 14 14 15 15 16 16 17 18 18 18 19 18 19 19 19 19 20 20 20 19 19 18 18 16 15 15
9 10 10 11 11 12 12 12 12 12 13 15 15 15 15 14 14 15 15 15 15 15 16 16 17 18 18 18 19 19 18 18 18 20 19 19 20 20 19 19 18 17 17 16 15
9 9 10 10 11 11 10 11 12 12 12 15 15 16 15 14 15 16 15 15 15 15 16 17 17 18 18 18 18 18 19 19 19 20 20 20 20 20 19 19 18 16 17 16 16
9 9 10 10 10 10 11 12 11 11 10 16 16 15 16 15 16 16 16 15 15 16 16 17 17 18 18 18 18 18 19 19 19 19 20 20 20 17 17 18 18 15 15 16 16
8 9 9 10 10 9 10 10 11 10 11 15 16 15 15 15 15 16 16 16 16 16 16 17 17 17 18 18 18 18 19 19 19 19 18 19 19 18 19 18 17 15 15 16 15
8 8 9 9 9 10 11 10 10 10 14 15 16 16 16 15 15 16 16 16 15 16 16 16 17 17 18 18 18 18 18 18 16 15 15 19 19 19 18 17 16 15 15 15 16
7 8 8 9 9 10 10 10 8 12 14 16 16 16 16 16 16 16 16 16 16 16 16 16 16 17 18 17 18 18 18 17 15 14 16 18 18 18 17 16 15 15 16 16 16
7 8 8 8 9 9 9 8 9 12 14 14 15 16 16 16 16 16 16 16 16 16 16 16 17 17 18 18 18 18 18 18 18 18 17 18 17 17 16 15 13 15 16 16 16
7 8 8 8 8 8 8 8 10 12 13 13 14 15 16 16 16 17 16 17 17 17 17 17 17 17 18 18 18 18 18 18 19 15 16 17 17 17 16 15 13 14 13 16 15
7 6 7 8 7 7 7 8 10 12 12 12 13 14 14 14 15 15 17 17 17 17 17 17 17 17 17 18 18 18 18 18 18 18 15 12 16 17 16 16 16 16 14 13 14
6 6 6 6 7 7 8 9 10 11 12 12 12 13 13 13 13 14 16 17 17 17 17 17 17 17 17 18 18 18 18 18 18 18 18 17 15 16 15 14 13 11 7 11 12
6 5 6 6 7 8 9 9 9 10 11 11 11 12 12 13 13 14 15 15 16 17 17 17 17 17 17 17 17 17 18 18 18 18 18 16 15 15 15 14 14 11 9 11 12
5 6 6 6 7 7 8 9 9 10 11 11 11 11 12 12 13 13 14 14 15 15 15 16 16 16 16 17 17 17 16 17 17 17 18 18 16 15 14 13 14 14 14 13 12
5 6 5 7 7 8 8 9 9 10 10 10 11 11 11 12 12 12 13 13 14 14 14 15 15 16 16 16 16 16 17 18 17 17 16 16 16 15 15 16 16 15 15 13 14
4 4 5 7 7 7 8 8 8 9 10 10 10 10 10 11 11 12 12 13 12 13 14 14 14 15 15 16 15 16 16 17 17 17 18 15 16 16 16 15 16 15 13 12 12
5 5 5 6 7 7 8 8 8 9 9 10 10 10 10 10 10 11 11 11 12 12 13 13 14 14 14 15 15 15 16 16 16 17 17 16 15 16 16 15 14 14 14 13 12

GFSSW_700_temp_054.txt.gz
Temp
12 12 12 12 13 13 14 14 14 14 14 14 14 14 15 15 14 15 15 15 15 15 15 16 16 16 17 16 16 16 15 15 16 16 17 16 16 17 16 17 16 16 16 15 13
12 12 12 12 13 13 13 13 14 14 14 14 14 15 15 15 15 15 15 15 15 15 15 16 16 16 17 17 16 16 16 17 18 17 17 17 17 17 16 17 16 16 15 15 14
12 12 12 12 13 13 13 13 13 14 14 14 14 15 15 14 15 15 15 15 15 15 15 15 16 17 16 17 17 16 17 18 18 18 18 18 17 17 17 17 17 15 14 14 14
11 12 12 12 13 13 13 13 13 13 14 14 14 14 15 14 14 14 15 15 15 15 15 15 15 16 16 17 17 17 17 18 19 18 18 18 17 17 18 17 16 17 15 14 15
11 12 12 12 12 13 13 13 14 13 14 14 14 14 15 13 14 15 14 15 15 15 16 15 16 16 16 17 17 17 17 17 18 18 18 18 18 19 18 17 17 16 16 15 15
11 11 12 12 12 13 13 13 13 14 14 14 14 14 15 14 14 15 15 15 15 16 16 16 16 16 16 17 16 17 17 18 18 18 18 18 18 18 17 17 16 17 17 15 15
11 11 12 12 12 13 13 13 13 14 14 14 14 15 15 14 14 15 15 15 15 15 15 15 16 16 16 17 17 17 18 18 18 19 18 17 18 19 17 17 17 16 16 15 14
11 11 12 12 12 12 13 13 13 13 14 14 14 15 15 14 15 15 15 15 15 15 15 16 15 15 16 17 17 17 18 18 18 19 18 18 18 17 18 17 17 15 16 17 15
10 11 11 12 12 12 13 13 13 13 14 14 15 15 15 15 15 14 15 15 15 15 15 15 15 16 16 16 17 17 17 18 19 19 18 19 19 19 18 17 17 16 16 16 16
10 11 11 11 12 12 12 13 13 13 14 14 15 15 15 14 15 14 14 15 14 14 15 15 15 15 16 16 17 18 17 18 19 18 19 19 19 19 19 18 16 16 16 16 15
10 10 11 11 12 12 12 13 13 13 14 14 14 15 15 14 14 14 14 15 14 14 15 15 15 15 16 16 17 17 17 17 18 19 19 19 19 19 19 18 17 17 16 16 14
9 10 10 11 11 12 12 12 12 12 14 14 14 15 15 14 15 14 14 14 14 15 15 15 15 17 16 17 17 17 17 18 19 19 19 19 19 18 18 18 18 17 17 16 15
9 9 10 10 11 11 11 11 11 12 13 15 15 15 16 14 15 16 14 14 14 14 15 15 17 16 16 17 17 17 18 18 18 19 18 18 19 17 18 18 18 17 16 15 15
9 9 9 10 10 10 10 11 12 12 12 15 15 16 16 15 15 16 15 14 14 15 15 15 16 16 17 17 18 18 18 18 18 18 18 19 18 17 17 18 18 17 16 17 15
8 9 9 9 10 10 10 11 12 12 10 15 15 15 16 16 16 16 15 15 14 15 15 16 16 16 17 17 18 18 18 19 18 18 18 18 18 17 16 17 17 17 16 16 15
8 8 9 9 9 9 10 10 11 11 10 15 15 16 15 16 16 16 15 15 15 15 15 15 16 16 17 17 18 18 18 18 18 18 18 19 18 18 17 18 18 17 16 16 16
7 8 9 9 9 9 10 10 9 9 13 15 15 15 16 16 16 15 15 15 15 15 15 16 16 16 17 17 18 18 18 17 15 13 14 19 17 18 17 18 18 18 16 16 15
7 8 8 9 8 9 9 9 9 11 13 14 14 14 15 15 15 15 15 15 15 15 15 15 15 17 17 17 17 18 18 17 14 11 16 18 17 17 17 17 15 14 11 12 14
7 8 8 7 8 9 9 8 9 12 12 12 13 14 15 15 15 15 15 16 16 16 15 15 16 17 16 17 17 17 17 17 18 17 15 17 15 16 16 16 15 14 11 12 13
7 7 8 8 8 8 8 8 9 11 12 12 12 13 13 14 14 15 15 16 16 16 16 16 16 17 17 17 17 17 18 17 17 14 13 16 16 15 14 14 14 14 13 14 14
6 7 7 7 7 7 7 7 9 11 11 11 12 12 12 13 13 14 14 15 15 16 16 16 16 17 17 17 17 17 18 18 17 17 13 10 13 13 15 15 15 15 14 14 14
6 6 6 6 7 6 7 8 9 11 10 11 11 12 12 12 13 13 14 14 14 16 16 17 16 16 17 17 17 17 17 18 18 17 16 16 13 13 14 15 15 15 15 15 14
5 5 6 5 6 7 8 8 8 9 10 11 10 11 12 12 12 13 14 14 14 14 15 15 16 16 17 17 17 17 17 17 16 17 17 14 12 14 14 14 15 14 16 15 15
5 5 4 5 6 6 7 8 9 9 10 10 10 11 11 12 12 12 13 14 14 13 14 14 15 16 16 16 16 16 16 16 17 16 16 16 14 15 15 14 15 16 16 16 15
5 4 4 5 6 6 7 8 8 9 10 10 10 11 11 11 11 12 12 13 13 13 14 14 14 14 15 16 15 15 16 16 16 16 17 16 16 16 16 16 15 15 15 15 15
5 4 5 5 6 7 7 8 8 8 9 10 10 10 11 11 10 10 12 11 12 13 13 13 13 14 14 15 15 15 16 16 16 16 16 16 15 15 14 14 14 14 15 15 14
5 5 5 5 6 7 6 7 8 8 9 9 9 10 10 10 10 10 11 11 11 12 12 12 13 13 13 14 14 15 15 15 15 15 15 15 16 14 13 14 14 15 15 15 14

GFSSW_700_temp_057.txt.gz
Temp
12 12 12 12 13 13 13 13 14 14 14 14 14 14 15 15 14 14 15 15 15 15 15 15 15 16 16 16 16 16 15 15 16 16 17 17 16 16 15 15 16 15 15 15 14
12 12 12 12 13 13 13 14 14 14 14 14 14 14 14 15 15 15 15 15 15 15 15 15 15 15 16 16 16 16 16 16 16 16 17 17 17 16 16 15 16 16 16 15 15
12 12 12 12 13 13 13 13 14 14 14 14 15 15 14 15 15 15 15 15 14 15 15 15 15 15 16 16 16 16 16 17 17 16 17 17 17 17 16 16 16 16 16 16 15
11 12 12 12 13 13 13 13 14 14 14 14 15 15 14 15 14 14 15 14 14 15 15 15 15 16 15 16 16 16 17 17 17 17 17 18 17 16 16 16 16 16 17 16 15
11 12 12 12 12 13 13 13 13 13 14 14 15 15 14 14 14 14 14 14 14 15 15 15 16 15 15 16 16 17 17 17 18 18 18 18 17 17 16 16 16 16 16 16 15
11 11 12 12 12 12 13 13 13 13 14 14 14 15 15 14 14 15 15 15 15 15 15 16 15 15 15 16 16 17 17 18 18 18 18 18 17 17 17 17 17 16 16 16 16
11 11 12 12 12 12 12 13 13 13 14 14 14 15 15 14 15 15 15 15 15 14 15 16 15 15 15 16 17 17 17 17 18 18 18 18 17 17 17 17 18 17 15 16 16
11 11 11 12 12 12 12 13 13 13 13 14 14 15 15 15 15 15 15 15 14 14 14 15 15 15 16 16 17 17 17 18 18 17 18 18 18 17 17 18 18 17 16 16 16
10 11 11 11 12 12 12 13 13 13 13 14 14 15 15 15 14 14 15 15 14 14 15 15 15 15 16 16 17 17 17 18 18 17 17 17 18 18 17 17 18 17 17 16 16
10 11 11 11 12 12 12 13 13 13 13 14 14 15 15 15 15 14 15 14 14 14 14 15 15 15 15 16 16 17 17 17 17 18 18 18 19 19 18 18 19 17 18 16 16
10 10 11 11 11 12 12 12 12 13 13 14 14 15 15 15 15 14 14 14 14 14 15 14 14 15 15 16 16 16 16 17 18 18 17 19 19 18 19 18 19 18 17 16 16
9 10 10 11 11 11 11 11 12 13 14 14 14 15 15 14 15 15 14 14 14 14 14 14 14 16 15 15 16 16 16 17 18 18 17 18 18 18 18 19 18 18 17 17 15
9 9 9 10 11 11 10 11 11 12 13 15 15 15 16 14 15 15 14 14 14 14 14 14 16 15 15 16 16 17 17 18 18 18 18 18 18 19 18 18 18 17 16 16 15
8 9 9 9 10 10 10 11 11 11 11 14 15 15 16 15 15 16 15 14 14 14 14 14 16 15 15 16 16 17 18 18 18 18 17 18 17 18 18 18 18 18 17 16 15
8 8 9 9 9 10 10 10 11 10 9 14 15 15 16 16 16 16 16 14 14 14 14 15 16 15 15 16 16 17 17 18 18 18 17 18 17 18 18 18 18 17 16 15 14
7 8 8 9 9 9 9 10 10 10 10 14 14 15 15 16 16 15 16 15 14 14 14 14 15 15 16 16 16 17 17 17 17 18 16 17 17 17 17 17 17 16 15 13 12
7 8 8 8 9 9 9 9 8 9 12 14 14 14 14 15 16 15 15 14 14 14 14 15 15 15 15 16 16 17 17 17 15 13 13 17 17 16 16 16 16 15 15 13 11
7 7 8 8 8 8 9 8 8 10 12 13 13 14 14 15 15 15 15 15 15 15 15 15 15 15 16 16 16 17 17 16 14 11 14 17 16 16 17 16 15 15 15 14 16
7 7 7 7 8 8 8 7 8 10 11 12 12 13 14 14 14 15 15 15 15 15 15 15 15 16 16 16 16 17 17 17 17 14 14 15 13 15 16 16 16 15 16 16 16
6 7 7 7 7 8 8 8 8 11 11 11 11 12 12 13 13 14 14 15 15 15 15 15 15 16 16 16 17 17 17 16 16 12 13 14 14 15 16 16 16 16 15 16 15
6 6 7 7 7 7 7 7 8 10 10 9 10 11 11 11 13 13 14 14 14 15 15 15 15 16 16 16 16 17 16 16 16 16 11 10 14 16 16 16 15 15 15 16 15
5 5 6 6 6 6 7 7 8 9 9 9 9 11 11 11 12 13 13 13 14 14 15 16 15 15 16 16 16 16 17 17 16 15 15 15 16 17 16 15 15 14 15 15 15
5 5 5 5 5 6 6 7 7 8 9 9 9 10 11 11 12 12 12 13 13 14 13 14 14 15 15 16 16 16 16 16 16 16 16 14 16 16 15 15 15 14 15 15 15
4 4 4 4 5 5 5 7 8 8 8 9 10 10 10 11 11 12 12 12 13 13 14 14 14 15 15 16 16 16 16 15 15 16 16 16 16 16 16 16 16 16 15 15 15
4 4 4 4 5 5 5 6 7 8 8 9 10 10 10 11 11 11 12 12 12 13 13 14 14 14 14 14 14 15 16 16 16 16 15 16 16 16 17 17 16 15 15 15 15
4 3 4 4 5 5 6 7 7 8 8 9 9 10 10 10 10 10 11 11 11 12 13 13 13 13 14 14 14 14 15 15 15 16 15 15 16 15 16 16 16 16 15 15 15
3 4 3 4 5 5 6 6 7 7 8 8 9 9 9 10 10 10 10 11 11 11 12 12 12 12 13 14 13 14 15 15 15 15 15 15 15 15 15 16 16 15 15 15 15

GFSSW_700_temp_060.txt.gz
Temp
11 12 12 12 12 12 13 13 14 14 14 15 15 15 15 15 15 15 15 14 14 15 15 15 15 15 15 16 16 16 16 16 16 16 16 16 16 16 15 16 16 15 15 15 14
11 12 12 12 12 12 13 13 14 14 14 14 14 15 15 15 15 15 15 15 14 14 15 15 15 15 15 15 16 15 16 16 17 17 17 16 15 16 16 16 16 16 15 15 14
12 12 12 12 12 12 13 13 14 14 14 14 14 15 15 15 15 15 15 15 15 14 14 14 15 15 15 15 15 15 16 16 17 17 17 17 16 15 16 17 16 16 15 15 13
12 12 12 12 12 12 13 13 13 14 14 14 14 14 15 15 14 15 15 15 14 14 14 14 15 15 15 15 15 16 17 17 18 18 18 18 17 16 16 16 16 16 16 15 13
12 12 12 12 12 12 13 13 13 14 14 14 15 14 14 15 14 14 14 15 14 14 15 15 15 15 15 15 16 16 17 17 18 18 18 18 18 17 17 16 16 16 16 15 13
11 12 12 12 12 13 13 13 13 14 14 14 15 15 15 15 15 14 14 14 14 14 15 15 15 15 15 15 16 16 17 17 18 18 18 18 18 17 17 17 17 16 16 15 13
11 12 12 12 12 13 13 13 13 13 14 14 15 15 15 15 15 15 14 14 15 14 15 15 15 15 15 16 16 17 17 18 18 17 18 18 18 18 18 17 17 17 16 16 14
11 11 11 12 12 12 12 13 13 13 14 14 14 15 15 15 15 14 14 14 14 14 14 14 14 15 15 15 16 16 17 18 18 17 16 17 17 18 18 18 18 17 16 16 15
10 11 11 11 12 12 12 13 13 13 13 14 14 15 15 15 15 14 14 14 14 14 14 14 14 15 15 15 16 16 17 17 17 17 17 16 17 18 18 18 18 17 17 16 15
10 10 11 11 11 12 12 12 13 13 13 14 14 14 15 15 15 15 14 14 14 14 14 14 14 15 15 15 15 16 16 17 17 17 17 17 16 16 18 18 18 17 17 16 15
9 10 10 11 11 11 11 12 12 13 13 14 14 15 15 15 15 14 14 14 14 14 14 14 14 14 15 15 15 15 15 16 18 18 17 18 17 17 18 18 18 18 17 16 15
9 9 10 10 11 11 11 11 12 12 13 14 14 15 15 14 15 14 14 14 14 14 14 14 14 14 15 15 15 15 15 17 18 18 17 17 18 18 19 18 18 17 17 16 15
8 9 9 9 10 10 10 11 11 12 12 14 14 15 15 15 15 15 15 14 14 14 14 14 14 14 14 15 15 16 16 17 17 18 17 17 18 18 19 18 18 18 16 15 14
8 8 9 9 9 10 10 10 11 11 10 14 14 15 15 15 15 15 15 14 14 14 14 14 14 15 15 15 15 16 17 17 17 17 17 17 17 18 18 18 18 17 16 15 15
7 8 8 8 9 9 9 9 9 9 8 13 14 15 15 15 15 15 15 14 15 14 14 14 14 15 15 15 15 16 16 17 17 17 17 17 16 18 17 17 18 18 17 16 15
7 7 8 8 8 9 9 8 8 9 9 13 13 13 14 14 15 15 15 15 15 14 14 14 14 14 15 15 15 16 16 16 17 17 15 17 16 17 17 18 17 17 17 16 16
6 7 7 8 8 8 8 8 7 8 11 13 13 13 13 14 14 14 15 15 15 14 14 14 14 15 15 15 15 16 16 16 14 13 12 16 16 17 17 18 18 16 16 16 16
6 7 7 7 7 7 7 7 7 9 11 12 12 13 13 14 14 14 14 14 14 14 14 14 15 15 15 15 15 16 16 16 13 10 14 15 16 18 17 18 17 16 16 15 15
6 6 7 6 7 7 7 6 8 10 10 11 12 12 13 13 14 14 14 14 14 14 14 14 15 15 15 15 15 16 16 16 16 13 13 15 16 16 17 17 17 16 15 15 16
6 6 7 6 6 6 7 7 8 9 10 9 11 11 12 13 13 14 14 14 14 14 14 14 14 15 15 15 15 16 16 16 15 11 12 13 14 17 17 17 17 16 16 15 15
5 6 6 6 6 6 6 6 7 8 10 9 10 10 11 11 12 13 13 13 13 14 15 15 15 15 14 15 16 16 16 16 15 15 10 9 14 17 18 17 16 16 15 15 15
5 5 5 6 6 6 6 6 7 8 9 9 9 9 10 11 11 12 12 12 13 14 14 15 15 15 15 15 15 15 15 16 15 14 15 14 16 17 17 17 16 15 15 15 14
4 4 4 5 5 5 6 6 6 7 8 8 8 9 10 10 11 12 12 12 12 13 13 14 14 15 15 15 15 15 16 16 16 16 16 13 16 17 17 17 17 16 15 15 14
4 3 4 4 5 5 5 5 6 7 8 8 8 9 10 10 11 11 12 12 12 13 13 13 14 14 15 16 16 15 15 16 16 16 15 16 16 17 17 17 17 16 15 14 15
4 3 4 4 4 5 4 5 6 7 8 8 8 9 10 10 10 11 11 12 12 12 12 13 13 13 14 14 14 15 15 15 16 16 15 15 16 16 16 17 17 16 15 15 14
3 3 3 4 4 5 5 6 6 7 7 7 8 9 9 9 10 11 11 11 11 12 12 13 13 13 13 13 14 14 14 14 15 15 15 15 16 16 16 16 16 16 16 15 14
3 3 3 4 4 5 5 5 6 7 7 8 8 9 9 9 10 10 10 10 11 11 11 12 12 13 13 13 13 13 14 14 14 14 14 14 14 15 15 16 16 16 16 15 14

GFSSW_700_temp_063.txt.gz
Temp
12 12 12 12 12 13 13 13 14 14 14 14 15 15 15 15 15 15 15 15 15 15 15 15 15 15 15 15 16 16 16 17 17 16 16 16 16 15 15 15 15 15 14 14 13
12 12 12 12 12 12 13 13 14 14 15 15 15 15 15 15 14 15 15 15 15 15 14 15 14 15 15 15 15 16 16 17 17 17 17 17 17 16 15 15 16 15 15 14 13
12 12 12 12 12 12 13 13 14 14 14 15 15 15 15 15 14 15 15 15 14 14 14 14 15 14 15 15 15 16 16 17 17 18 18 18 17 17 17 16 16 16 15 14 13
12 12 12 12 12 12 13 13 13 14 14 15 15 15 15 15 14 14 15 15 15 14 14 15 14 14 15 15 15 16 16 17 18 18 18 18 18 18 17 17 16 16 15 15 13
11 12 12 12 12 12 13 13 13 14 14 15 14 15 15 15 14 14 14 15 15 14 14 14 15 14 15 15 15 16 17 17 17 18 18 18 18 18 18 17 16 16 16 15 14
11 12 12 12 12 12 13 13 13 14 14 15 15 15 15 15 15 14 14 14 14 14 14 14 14 14 15 15 15 16 17 17 17 18 18 18 18 18 18 18 17 16 16 15 14
11 11 12 12 12 12 12 13 13 13 14 14 14 15 15 15 15 15 14 14 14 14 14 14 14 15 15 15 15 16 16 17 17 17 17 18 18 18 17 17 17 17 16 15 14
11 11 11 11 12 12 12 13 13 13 13 14 14 15 15 16 15 15 14 14 14 14 14 14 14 14 15 15 15 16 16 17 17 17 17 17 17 17 17 17 17 17 16 15 14
10 11 11 11 11 12 12 12 13 13 13 14 14 15 15 16 15 15 15 14 14 13 13 13 13 14 14 15 15 16 16 17 17 16 17 17 17 17 17 17 17 17 16 15 15
10 10 10 11 11 11 11 12 12 13 13 13 14 14 15 15 15 15 15 14 14 14 13 13 14 14 14 15 16 15 16 16 17 17 17 17 18 17 17 17 17 16 15 15 15
9 9 10 10 11 11 11 12 12 12 13 13 14 14 15 15 15 15 14 14 14 14 13 13 14 14 14 14 14 15 15 16 17 17 17 17 17 18 17 17 18 17 15 15 14
9 9 9 9 10 10 11 11 11 12 13 13 14 14 14 14 15 14 15 14 14 14 13 14 13 14 14 14 14 14 15 15 17 17 17 17 18 18 18 18 18 17 17 16 15
8 9 9 9 9 10 10 10 11 11 12 14 14 14 15 14 15 15 15 14 14 14 14 14 14 14 14 14 14 15 15 16 16 17 17 17 17 18 18 18 18 18 17 16 16
7 8 8 8 8 9 9 10 10 10 10 13 14 14 15 15 14 15 14 14 14 14 14 14 14 14 14 14 14 15 15 16 16 17 17 17 18 18 18 18 18 18 18 17 16
6 7 8 8 8 8 8 8 9 9 10 13 14 14 14 15 15 15 15 14 14 15 14 14 14 14 14 14 14 15 15 16 16 17 17 16 17 18 18 18 18 18 18 17 16
6 7 7 8 7 7 7 7 8 8 9 12 13 13 13 14 14 14 15 14 14 14 14 14 14 14 14 15 15 15 15 16 16 16 17 16 16 17 18 18 18 18 17 16 15
5 6 7 6 7 7 7 7 7 8 11 12 12 12 13 13 13 14 14 14 14 13 13 14 14 14 14 14 15 15 15 16 17 17 18 16 15 17 18 18 18 17 16 16 15
5 6 6 6 6 7 7 6 6 9 10 11 11 12 12 13 13 13 13 14 14 14 14 13 14 15 15 15 15 15 15 16 16 17 17 16 16 17 17 18 18 17 16 16 15
5 5 6 6 6 6 6 6 7 8 9 10 11 11 12 12 13 13 13 14 14 15 14 14 14 15 15 15 15 15 15 16 16 14 15 15 16 17 17 17 18 17 16 15 15
5 5 6 6 6 6 6 6 7 8 9 9 10 11 11 12 12 13 14 13 14 14 14 14 14 15 14 15 15 15 15 15 15 15 15 14 15 17 17 17 17 17 16 15 15
4 5 5 5 6 6 6 6 6 7 8 8 9 10 11 11 11 12 13 13 13 14 14 14 14 14 14 15 15 15 15 15 15 14 17 17 16 17 17 17 17 16 16 15 15
4 4 5 5 5 6 6 6 6 6 8 8 8 9 9 10 11 11 12 12 13 13 14 14 14 14 14 15 15 15 15 15 15 14 14 14 17 17 17 17 17 17 16 15 15
3 4 4 4 4 5 5 6 6 6 7 7 7 8 9 10 10 11 11 12 12 12 13 13 13 15 14 14 15 15 15 15 15 15 15 16 17 17 17 17 17 17 16 15 15
3 3 4 4 4 4 5 5 5 6 7 7 8 7 8 9 10 11 11 11 12 12 12 13 13 14 15 15 15 15 16 15 15 15 15 15 16 16 17 17 17 17 17 15 14
2 3 4 3 4 4 4 5 5 6 6 7 7 8 8 9 10 10 11 11 11 12 12 12 13 13 13 14 14 15 15 15 15 15 16 16 16 16 16 16 16 16 15 15 14
2 2 3 3 4 4 4 5 5 6 6 7 7 8 8 9 10 10 10 11 11 11 12 12 13 13 13 13 13 13 14 14 14 15 15 15 15 16 16 16 15 15 15 15 14
2 2 3 3 3 4 4 5 5 6 7 7 7 8 9 9 9 9 10 10 11 11 11 11 12 12 13 13 13 13 14 14 14 14 14 14 14 15 15 16 16 16 15 15 15

GFSSW_700_temp_069.txt.gz
Temp
13 13 13 13 13 13 13 13 14 14 15 15 15 15 15 15 15 15 15 15 15 15 15 15 15 16 16 16 15 17 17 20 20 19 19 19 19 18 17 16 15 14 14 13 13
13 13 13 13 13 13 13 14 14 14 14 14 15 15 16 15 15 15 16 15 15 15 15 15 15 15 14 16 16 17 19 19 19 19 19 19 19 18 17 17 15 14 14 14 14
13 13 13 13 13 13 13 14 14 14 14 14 14 15 15 15 15 14 15 16 15 15 15 15 15 16 15 17 17 18 19 19 19 19 19 19 19 19 18 18 17 15 13 14 14
12 12 13 13 13 13 13 13 14 14 14 14 15 15 15 15 15 15 15 16 16 15 15 15 15 15 16 17 18 17 18 18 19 19 19 19 19 19 18 18 17 16 15 14 14
12 12 12 13 13 13 13 14 14 14 14 14 15 15 15 15 14 15 16 16 16 15 15 15 15 15 16 17 18 18 18 18 19 19 18 18 19 19 18 18 17 16 14 14 13
12 12 12 12 13 13 13 13 14 14 14 14 14 15 15 14 16 15 15 15 16 15 15 15 15 15 16 16 17 18 17 18 19 19 19 18 19 19 18 17 16 15 14 14 13
11 12 12 12 12 13 13 13 13 14 14 14 14 14 15 14 16 16 15 15 15 15 14 14 14 15 16 17 17 17 17 18 19 19 19 19 19 16 18 17 16 15 14 14 13
11 11 11 12 12 12 13 13 13 13 13 14 14 14 15 15 15 16 15 14 14 14 13 14 14 14 15 16 16 17 18 19 20 19 19 19 20 19 18 17 16 15 15 16 14
10 10 11 11 12 12 12 13 13 13 13 13 14 14 14 15 15 15 16 15 13 13 13 14 14 14 15 16 17 17 18 19 20 19 19 19 19 19 18 17 16 15 15 15 13
9 10 10 10 11 11 12 12 12 13 13 13 13 13 14 15 14 15 16 15 14 13 13 13 14 15 16 17 18 19 19 20 20 19 19 19 19 20 19 18 17 16 15 14 13
8 9 9 9 10 10 11 11 11 12 12 13 13 14 14 13 15 15 14 14 14 14 14 15 15 16 17 18 18 18 18 19 19 19 19 19 19 19 19 18 18 16 15 14 14
8 8 8 9 9 9 10 10 11 11 12 13 14 13 13 13 14 14 14 14 14 15 15 16 16 17 17 17 17 17 17 18 18 18 18 19 19 20 18 18 18 17 16 14 14
8 8 8 8 8 9 9 9 9 10 10 13 12 13 14 13 14 14 14 14 15 15 16 16 17 17 17 16 16 17 17 18 18 18 19 18 19 19 19 18 18 17 17 15 14
7 7 7 7 7 8 8 9 9 9 9 12 13 13 13 14 14 14 15 15 15 16 16 17 17 17 17 16 17 18 18 18 18 18 19 19 20 20 19 19 18 17 17 16 14
6 7 6 7 7 7 8 8 8 8 12 14 14 14 14 13 15 15 15 15 15 16 16 17 17 17 16 17 17 17 18 17 17 18 18 19 20 20 19 19 19 18 16 16 14
6 7 6 6 6 7 7 7 7 8 12 14 14 14 14 14 15 15 15 15 15 15 16 16 17 17 17 17 17 17 17 17 17 18 20 20 20 21 20 19 19 18 17 15 15
6 6 6 6 5 6 7 7 7 10 12 13 14 14 14 14 15 15 15 15 15 16 16 16 16 17 16 17 17 16 17 18 19 20 21 21 20 20 20 19 18 18 16 17 17
5 6 6 6 6 6 6 6 8 10 11 13 13 14 15 15 15 15 15 15 15 16 16 17 17 17 16 16 17 17 17 19 19 21 22 20 20 20 19 19 18 17 15 17 17
5 5 5 6 6 6 6 6 8 10 12 12 13 13 14 14 15 15 15 15 16 16 16 17 17 17 17 17 17 17 18 18 19 19 20 21 20 19 19 18 18 16 15 17 16
4 5 5 6 6 6 5 6 9 10 10 10 11 12 14 15 15 15 16 15 16 16 16 16 17 18 17 17 17 17 17 18 18 19 19 21 20 20 19 18 18 16 15 17 16
4 4 5 5 5 5 5 7 8 9 9 9 10 12 13 14 14 15 16 16 16 16 16 16 17 17 17 17 17 17 17 17 18 19 20 20 20 19 19 19 17 16 15 14 16
3 3 4 4 4 5 6 7 8 8 9 9 9 10 11 12 13 13 15 15 14 15 16 16 16 16 17 17 17 17 17 17 18 18 18 19 19 19 18 18 17 17 15 14 13
3 2 4 4 5 7 7 7 7 7 8 9 9 9 10 11 11 12 14 13 13 14 15 15 16 16 17 17 17 17 17 18 18 18 18 19 19 18 17 17 15 16 14 13 13
2 3 3 4 4 5 6 7 7 7 7 8 9 9 10 10 11 11 13 13 12 13 14 14 15 16 17 17 18 17 17 17 17 18 18 18 19 17 15 15 14 14 13 14 15
2 3 3 5 5 5 5 6 6 7 8 7 8 8 9 10 10 11 12 13 13 12 13 14 14 15 16 16 16 17 17 17 17 17 18 18 15 11 13 13 15 14 13 15 15
0 1 2 3 3 4 4 5 6 7 7 8 8 9 10 9 10 11 12 12 13 13 13 13 14 14 15 16 16 17 17 17 17 17 17 18 15 12 14 12 15 15 15 15 15
-1 1 2 3 4 5 5 5 5 6 7 7 8 9 9 10 10 10 11 12 12 12 13 12 13 14 15 16 16 16 17 17 17 17 17 16 13 13 11 14 15 15 15 14 14

GFSSW_700_temp_072.txt.gz
Temp
13 13 13 14 14 14 14 14 15 15 15 15 15 16 16 16 16 16 16 16 15 15 16 16 16 16 17 18 17 17 18 19 21 21 20 20 20 19 18 17 16 15 15 15 14
13 13 13 13 13 14 14 14 14 15 15 15 15 15 16 16 16 16 16 16 16 15 15 16 16 16 16 16 18 18 19 20 20 20 20 20 20 20 19 16 15 15 15 15 15
13 13 13 13 13 13 14 14 14 14 14 15 15 16 16 16 16 16 16 16 16 16 15 16 15 15 16 17 18 19 19 20 20 20 20 20 20 20 20 18 16 15 16 16 15
13 13 13 13 13 13 14 14 14 14 14 14 15 15 15 15 15 15 15 16 16 16 16 16 15 15 16 17 19 19 19 19 20 20 20 20 20 20 19 19 18 16 17 16 15
12 12 13 13 13 13 14 14 14 14 14 14 15 15 15 15 15 15 16 16 17 16 16 15 15 16 17 17 18 19 19 19 19 20 20 19 19 19 19 19 18 17 17 15 13
12 12 12 13 13 13 13 14 14 14 14 14 14 15 15 15 14 16 16 16 16 16 16 16 15 16 16 17 17 18 18 19 19 19 20 19 20 20 19 18 18 16 17 14 13
11 11 12 12 12 13 13 13 13 14 14 14 14 14 15 16 14 16 17 16 16 16 15 14 15 15 16 16 17 18 18 18 19 20 20 20 20 20 19 18 17 16 15 14 13
10 11 11 11 12 12 13 13 13 13 14 14 14 14 15 15 14 14 16 16 16 16 14 15 15 15 15 16 17 17 18 19 19 20 20 20 20 19 19 18 17 16 15 15 14
10 10 11 11 11 11 12 12 13 13 13 13 14 13 15 15 16 15 16 16 16 14 14 14 14 15 15 16 17 18 18 19 20 20 20 20 20 20 20 19 18 17 16 15 14
10 10 10 10 11 11 11 11 12 12 13 13 13 13 15 15 15 15 15 14 14 14 14 14 14 15 16 17 18 19 20 20 20 21 20 20 20 20 20 19 19 17 16 15 14
9 9 9 10 10 10 10 10 10 11 12 13 13 13 15 15 14 15 14 14 14 15 15 15 15 16 17 18 18 19 19 20 20 20 20 20 20 20 20 20 19 18 17 15 14
9 9 9 10 10 10 10 9 8 10 11 12 13 12 13 14 14 14 14 14 14 15 15 16 16 16 17 18 18 19 19 19 19 19 19 20 20 20 20 20 19 19 17 16 15
8 8 8 8 9 9 9 8 9 9 9 12 12 12 13 14 14 14 15 15 15 15 16 16 17 18 18 18 18 18 18 18 19 19 20 20 20 19 20 20 19 19 18 16 15
7 7 8 8 8 8 7 8 8 9 8 10 12 13 13 14 14 14 15 15 15 16 16 17 17 18 18 18 18 18 18 19 19 19 19 20 20 20 20 20 19 18 18 17 16
6 7 7 8 8 8 7 8 8 8 10 13 14 15 14 14 15 15 15 15 16 16 16 17 17 18 18 18 18 18 18 18 19 19 19 19 20 21 21 20 20 19 18 18 16
6 6 7 7 7 7 7 7 7 7 10 12 14 15 15 15 15 15 16 15 16 16 16 17 17 18 18 18 18 18 18 18 18 18 19 19 20 21 21 20 20 19 17 17 16
5 6 6 6 6 7 6 7 7 9 11 13 13 15 15 15 15 15 15 16 16 16 16 16 17 17 18 18 18 18 18 18 18 19 20 20 21 21 21 19 19 18 17 16 17
5 5 6 6 6 6 6 5 7 10 11 12 13 14 15 15 15 15 15 16 16 16 16 17 17 17 18 18 17 18 18 18 18 20 21 21 21 21 21 20 19 19 17 17 17
5 5 6 6 6 6 6 6 8 9 11 12 12 13 14 15 16 16 16 16 16 16 16 17 17 18 18 18 18 17 18 18 19 19 20 21 20 21 20 20 19 18 17 17 17
5 5 5 4 5 6 5 6 7 9 10 11 12 12 13 14 15 15 16 16 16 16 17 17 17 17 18 18 18 18 18 18 18 18 18 20 21 21 20 19 19 17 16 16 15
4 5 4 4 5 5 5 7 8 9 9 10 11 11 12 13 14 14 14 16 16 17 17 17 17 17 17 17 18 18 18 18 18 19 20 19 20 19 19 18 18 18 16 15 14
4 4 4 4 4 5 6 7 8 8 10 10 10 10 11 12 12 13 14 13 14 15 17 17 17 17 17 18 18 18 18 18 18 18 18 18 19 18 18 19 18 18 16 15 14
4 4 4 4 5 7 8 8 8 9 9 10 10 10 10 11 11 12 13 12 13 14 15 15 17 17 17 18 18 18 18 18 18 18 18 18 19 18 17 17 17 16 15 15 14
3 4 5 4 5 5 6 8 8 9 8 9 9 10 10 11 11 12 12 12 13 14 13 14 15 16 17 17 17 17 18 18 18 18 18 18 16 17 16 15 15 15 15 14 14
3 4 4 3 6 6 6 7 7 8 8 9 9 9 9 10 11 11 12 12 12 13 13 14 14 15 16 17 17 16 16 17 18 18 18 18 16 16 15 15 12 14 13 13 13
2 1 2 3 4 4 6 6 6 7 6 8 8 9 9 10 10 10 11 12 13 13 12 13 14 14 15 16 16 17 17 17 17 18 18 18 16 16 14 14 13 13 12 12 12
-0 1 2 3 4 6 6 6 7 6 6 7 7 8 8 10 10 11 11 12 12 12 11 12 13 14 14 15 15 15 17 16 17 17 17 17 14 12 11 11 13 11 11 11 12

GFSSW_700_temp_075.txt.gz
Temp
13 14 14 14 14 15 15 15 15 15 16 16 16 16 16 16 17 17 17 16 16 16 16 16 16 16 17 17 17 16 17 18 20 20 20 20 20 18 17 18 18 16 15 15 15
13 13 13 14 14 14 15 15 15 15 15 16 16 16 16 17 17 17 17 17 16 16 15 16 16 17 16 17 18 17 18 19 19 20 20 20 20 19 18 18 17 18 15 15 15
13 13 13 13 13 14 14 14 15 15 15 15 16 16 16 16 16 16 17 17 16 16 16 15 16 16 16 17 18 18 18 19 19 20 20 20 19 20 19 18 17 18 17 16 15
12 13 13 13 13 13 13 14 14 14 14 15 15 15 16 16 16 17 17 16 16 17 17 16 15 16 16 16 17 17 18 19 19 19 20 20 20 19 19 19 17 17 18 17 16
12 12 12 13 13 13 13 13 14 14 14 14 15 15 15 16 16 17 17 17 16 17 17 16 15 15 15 16 17 17 18 18 18 19 19 19 20 19 19 18 17 17 17 16 17
11 11 12 12 12 13 13 13 13 13 14 14 15 15 15 16 15 16 16 16 17 17 17 16 16 15 15 16 16 17 17 18 18 19 19 19 20 19 19 18 17 17 17 16 15
11 11 11 11 12 12 12 13 13 13 13 13 14 14 15 17 14 16 16 16 16 17 17 16 15 15 15 15 16 16 17 17 18 18 19 19 20 20 19 18 17 16 16 16 14
11 11 11 11 11 12 12 12 12 13 13 13 13 14 15 16 15 16 17 16 16 16 16 15 15 15 15 15 15 16 16 17 18 19 19 19 20 20 19 18 18 17 16 15 14
10 11 11 11 11 12 12 12 12 12 13 13 13 13 14 15 16 16 16 16 16 16 16 14 14 14 15 15 15 16 16 17 19 20 20 20 20 20 19 18 18 17 16 15 14
10 10 11 11 11 11 12 12 12 11 11 12 12 12 14 15 15 15 15 16 16 14 14 14 14 14 14 15 15 16 17 18 19 20 20 20 20 20 20 19 19 18 16 16 15
9 9 10 10 10 11 12 11 10 11 11 11 12 12 13 14 14 14 15 15 15 14 14 14 14 14 14 15 16 17 18 19 19 19 19 19 20 20 20 20 19 18 18 16 15
9 9 9 9 9 10 10 10 9 9 10 11 11 12 12 14 14 14 15 14 14 14 15 14 15 15 15 16 17 17 18 18 19 19 19 19 20 20 20 20 20 19 18 17 15
9 9 9 8 9 9 8 9 10 8 8 11 12 12 13 13 14 14 14 14 14 14 15 15 15 16 16 17 17 18 18 18 18 18 19 19 19 19 19 20 19 19 18 17 17
8 8 7 8 8 8 7 10 9 8 8 10 13 14 14 13 13 14 14 15 15 15 15 15 16 16 17 17 18 18 18 18 18 18 19 19 18 19 20 20 19 19 19 17 17
8 8 7 7 7 7 7 7 7 7 6 11 13 13 14 14 15 14 14 14 15 15 15 15 16 16 17 18 18 18 18 18 18 18 18 19 19 19 19 20 20 19 18 18 17
7 7 7 6 7 8 7 7 7 7 7 11 12 13 14 13 14 14 14 14 15 15 15 15 16 16 17 18 18 18 18 18 18 18 16 18 18 19 19 20 20 19 18 18 17
7 7 6 6 6 7 6 6 6 7 10 11 12 12 13 14 14 14 14 14 15 15 15 15 16 16 16 17 18 18 18 17 14 14 13 18 18 19 19 20 20 19 18 18 17
7 7 6 6 6 6 6 6 5 8 9 10 11 11 12 13 15 15 15 15 15 15 15 15 15 16 16 17 17 18 18 17 13 12 15 18 18 20 20 20 20 19 18 18 17
6 6 7 6 6 6 5 5 6 7 8 9 10 11 12 13 14 14 15 15 15 15 15 15 16 16 16 17 17 17 17 17 18 18 16 18 19 20 20 18 19 18 18 17 17
6 5 6 6 6 5 5 6 6 7 8 8 9 10 11 12 12 12 12 13 13 15 15 16 16 16 17 17 17 17 18 17 17 14 13 17 19 19 20 19 18 18 17 17 17
5 5 4 4 5 5 5 6 7 7 8 9 9 10 11 11 11 11 12 13 12 13 14 14 16 16 16 17 17 17 17 18 17 18 12 13 17 18 18 19 19 18 16 16 15
5 5 4 4 4 4 6 7 7 8 8 9 10 10 11 11 11 11 11 12 12 12 13 13 14 15 15 16 17 17 18 18 18 17 17 18 17 17 18 18 18 18 17 17 16
5 5 5 3 4 5 6 6 8 9 9 9 9 10 10 10 10 11 11 12 12 12 12 13 13 14 16 17 17 17 17 18 18 18 17 15 16 17 17 17 18 17 16 16 15
5 4 4 4 4 4 5 6 7 8 8 9 9 9 9 9 10 10 11 11 12 11 12 12 13 14 14 15 16 18 16 17 17 17 17 18 17 16 17 16 16 15 15 11 13
4 3 2 4 4 4 5 6 6 7 8 8 8 9 9 9 9 10 10 11 10 11 11 11 12 13 14 15 16 15 15 16 16 17 17 18 17 16 16 16 15 14 13 8 11
3 3 3 5 4 5 5 5 6 7 7 7 7 7 8 8 9 9 10 10 11 11 12 12 12 12 14 14 14 13 14 15 15 15 16 17 16 15 16 15 14 14 15 13 11
3 3 3 4 4 4 5 5 4 6 7 6 6 6 7 8 8 8 9 10 10 11 11 12 12 11 12 13 14 14 11 13 14 14 13 15 12 11 13 12 12 12 12 12 12

GFSSW_700_temp_078.txt.gz
Temp
13 13 14 14 14 15 15 15 15 15 16 16 16 16 16 16 17 17 17 17 17 16 16 16 16 15 15 17 16 15 16 17 18 19 20 19 18 17 17 17 18 16 16 15 15
13 13 13 13 13 14 14 15 15 15 15 16 16 17 17 17 17 17 17 17 17 17 16 16 16 15 16 17 17 16 16 17 17 19 19 19 18 18 17 17 17 18 17 16 15
12 12 13 13 13 13 13 14 15 15 15 15 15 16 17 17 17 16 16 16 17 17 17 17 16 16 16 17 17 16 16 17 18 18 19 19 18 19 18 18 18 18 18 16 15
12 12 12 13 13 13 13 13 14 14 15 15 15 15 16 16 16 16 17 17 17 17 17 17 17 16 16 17 17 16 17 17 17 18 19 19 19 19 18 19 18 17 17 16 16
12 12 12 12 12 13 13 13 13 13 13 14 15 15 15 16 17 16 17 17 17 16 17 17 17 16 16 17 16 16 17 17 17 18 19 19 19 18 18 18 18 17 17 16 16
12 12 12 12 12 12 13 13 13 13 13 13 13 14 15 16 16 16 17 16 17 17 17 17 17 16 16 16 15 16 16 17 17 18 18 18 19 19 18 18 18 17 18 17 17
11 11 12 12 12 13 13 13 13 13 13 13 14 14 14 16 15 16 16 16 17 17 16 17 16 15 15 15 15 15 16 17 18 18 19 19 19 19 19 19 18 17 17 17 17
11 11 12 12 12 12 12 13 13 13 13 13 13 13 14 15 14 15 16 16 16 17 16 17 15 14 14 14 15 16 16 17 18 18 20 18 19 19 19 19 18 18 17 17 17
10 11 11 11 12 12 12 12 12 13 13 12 12 12 13 15 15 15 15 16 16 16 16 16 15 14 14 14 15 15 16 17 18 18 18 18 19 19 19 19 18 18 17 17 17
10 11 11 11 11 11 11 11 12 12 12 12 12 12 13 14 14 15 14 15 15 15 14 15 14 14 14 14 14 15 16 17 17 18 18 19 19 19 19 18 18 18 17 16 17
11 11 11 11 11 11 11 11 12 11 11 11 12 12 12 13 14 14 14 14 14 13 13 14 14 14 16 15 16 15 15 15 17 18 17 19 19 19 19 18 18 18 17 16 17
11 11 11 10 10 10 10 10 10 10 12 12 12 12 13 13 13 14 13 13 14 14 14 13 13 15 15 15 15 15 15 16 17 17 18 19 19 19 19 19 18 18 17 17 16
11 11 11 10 10 9 9 9 9 9 8 13 13 13 13 12 13 14 13 13 13 14 14 13 16 15 14 15 15 15 16 16 17 18 18 18 18 19 19 19 19 18 18 18 18
10 10 10 10 9 8 8 8 8 7 8 13 13 12 12 13 12 14 14 13 13 14 14 14 15 14 14 15 15 15 17 17 17 18 17 18 17 18 19 19 19 19 18 18 17
10 10 9 10 8 8 8 8 8 7 5 12 12 11 11 11 12 14 14 14 13 13 14 14 14 15 15 15 15 15 17 17 17 18 17 18 17 18 19 19 19 19 19 18 18
9 10 10 8 8 8 7 7 8 7 7 11 11 10 11 12 13 13 13 13 14 13 14 14 14 15 15 15 15 16 16 17 18 17 15 18 17 18 18 18 19 19 18 19 18
9 9 10 8 8 7 6 6 7 7 9 10 9 10 11 11 12 13 14 14 13 13 13 14 14 15 15 15 16 15 16 16 14 13 12 17 17 18 18 19 19 19 18 18 18
8 8 8 8 7 6 6 6 6 7 8 8 8 10 11 10 11 12 13 13 14 14 14 14 14 15 15 15 15 15 16 16 12 11 14 17 17 18 18 19 19 20 20 18 18
7 7 7 6 6 6 6 6 6 7 7 7 8 9 11 10 10 11 12 13 13 13 13 14 14 15 15 16 15 16 16 16 17 16 13 16 17 18 18 19 19 20 18 18 18
7 7 6 5 5 6 6 6 7 7 7 7 7 8 9 9 10 11 11 11 12 12 12 12 12 14 15 15 16 16 16 16 16 13 12 15 17 17 18 18 18 18 19 18 17
6 6 6 6 5 6 6 6 7 7 7 7 8 8 9 9 10 10 10 11 11 11 12 12 13 13 14 14 15 16 16 16 14 16 11 11 16 18 17 18 18 18 18 18 17
5 5 5 4 5 5 5 5 6 7 7 8 9 9 9 9 9 10 10 10 11 11 11 11 12 12 13 14 15 14 15 16 16 16 15 16 16 17 18 18 17 17 17 17 17
5 4 4 4 4 4 4 5 6 6 7 7 8 8 9 9 9 9 10 10 11 11 11 11 11 11 13 14 15 15 15 16 16 16 16 14 16 17 17 17 17 16 16 16 15
5 4 4 4 4 3 4 6 6 7 7 7 7 8 8 8 9 8 9 10 10 10 11 11 11 10 10 12 13 14 15 14 15 15 15 16 17 16 17 17 17 16 15 15 15
4 4 5 4 3 4 4 5 5 6 6 7 7 7 7 7 7 8 9 10 10 10 11 10 11 11 11 13 14 14 14 14 14 14 14 15 16 15 16 16 15 16 15 14 14
4 4 4 4 4 4 4 4 4 5 5 5 6 6 6 6 6 6 7 8 9 9 10 10 10 11 11 11 12 13 13 13 13 12 13 12 12 11 12 12 13 13 14 14 15
3 3 3 4 3 3 4 4 4 4 6 5 5 5 6 6 6 6 7 8 8 9 10 10 10 11 12 12 12 12 11 13 12 12 13 12 10 11 11 10 12 13 11 12 10

GFSSW_700_temp_084.txt.gz
Temp
13 13 13 13 13 13 13 13 14 14 15 15 16 16 16 16 16 16 16 16 16 16 16 15 15 15 16 16 16 15 15 15 16 16 17 17 17 16 16 16 16 16 15 15 15
12 12 13 13 13 13 13 13 13 14 14 15 15 16 16 17 16 16 16 16 16 16 16 16 15 15 16 15 15 15 16 16 16 16 17 17 17 17 16 16 17 17 16 15 16
12 12 12 13 13 13 13 13 13 13 13 14 14 15 16 17 17 16 16 16 16 16 16 16 16 16 16 15 15 15 16 16 17 16 17 17 17 17 16 16 17 17 16 16 16
12 12 12 12 13 13 13 13 13 13 14 14 14 14 14 15 15 16 16 16 15 15 15 15 15 16 16 16 15 15 16 16 17 17 17 17 17 17 17 18 17 17 16 15 16
12 12 12 13 13 13 13 13 13 14 14 14 14 14 15 15 15 14 15 15 15 15 15 15 15 15 15 16 16 15 16 16 17 17 17 17 17 17 18 18 17 17 17 15 16
12 12 12 13 13 13 13 13 14 14 14 14 14 14 14 15 15 15 15 15 15 15 15 15 15 14 15 16 15 15 16 17 17 18 17 17 17 17 17 17 18 18 17 17 15
12 12 12 12 13 13 13 13 14 14 14 14 14 14 14 15 14 14 14 15 15 15 15 15 14 14 15 15 14 14 14 16 17 17 17 17 18 17 17 18 19 18 17 17 16
12 12 12 13 13 13 13 14 13 14 14 13 13 13 15 15 14 14 14 14 14 15 16 14 15 15 15 14 13 13 13 15 17 17 17 17 17 18 18 19 19 18 17 18 17
12 12 13 13 14 14 14 14 14 14 14 14 13 13 15 14 14 14 14 14 14 15 15 14 13 14 14 14 14 14 14 15 15 16 16 16 17 18 17 18 19 19 17 18 17
13 13 13 13 14 14 14 14 15 14 14 13 13 13 13 13 13 13 13 14 14 14 14 14 13 14 13 13 15 16 14 14 15 14 15 16 17 18 18 18 18 18 17 17 18
13 13 13 13 13 14 14 14 13 14 13 12 12 11 12 13 12 13 13 12 13 13 14 14 13 13 14 15 14 14 13 13 15 15 15 16 16 17 17 17 18 18 18 17 18
12 12 12 12 13 13 14 14 14 13 14 12 11 10 11 11 13 13 13 12 12 13 13 13 12 13 14 14 13 13 13 13 14 15 14 15 16 17 17 17 18 18 18 17 17
12 12 12 12 13 12 12 12 11 12 12 11 10 11 11 12 12 12 12 12 12 12 12 12 12 13 13 13 13 13 13 14 14 14 14 15 15 16 16 17 18 18 18 17 17
12 12 12 12 12 11 11 11 10 10 11 10 10 11 10 10 12 12 11 12 12 12 12 12 12 13 13 13 13 13 14 14 14 14 14 14 13 16 17 17 17 17 17 18 17
11 11 11 12 11 11 11 10 10 10 7 10 9 10 10 10 10 12 12 12 13 13 13 12 12 13 13 13 14 13 14 14 14 14 14 14 13 15 17 17 17 17 17 18 18
11 11 11 11 11 10 10 9 8 9 8 9 9 10 10 10 11 11 12 12 13 12 12 12 13 13 13 13 13 13 13 13 13 13 11 15 14 14 17 17 17 17 17 18 18
10 10 10 10 10 10 9 8 8 8 8 7 8 9 9 9 11 11 11 11 11 11 12 12 12 13 12 12 13 13 13 12 11 10 9 15 15 15 16 17 17 17 17 17 17
10 10 10 10 9 9 8 8 8 7 6 6 7 8 9 8 10 11 10 10 10 10 10 11 11 13 13 13 13 13 13 12 9 8 9 14 14 15 16 16 17 17 17 18 18
9 9 9 9 8 8 7 7 7 6 6 6 7 8 8 8 8 9 9 10 10 10 9 11 12 12 13 13 13 13 13 13 13 10 10 14 15 15 16 17 17 17 17 18 19
9 8 8 8 8 7 7 6 6 6 6 6 6 7 7 8 8 8 9 9 10 10 10 11 11 12 13 13 13 13 13 13 12 8 8 12 13 13 15 16 16 17 17 18 18
8 8 8 7 6 6 6 6 6 5 6 6 6 6 7 7 8 8 9 9 9 10 10 10 11 12 12 12 13 13 13 13 12 11 8 8 11 14 14 15 16 16 17 17 18
7 7 7 6 6 6 5 5 5 6 5 6 6 6 6 6 7 8 8 8 9 9 10 10 10 11 12 12 12 12 12 13 12 11 12 12 12 14 14 15 15 16 16 17 17
6 6 6 5 5 5 4 4 4 5 5 6 6 5 6 6 7 7 8 8 9 9 9 9 10 10 11 12 12 12 12 11 13 13 13 11 13 14 14 15 15 16 16 17 16
5 5 5 5 5 4 4 4 4 4 5 5 5 5 6 6 6 6 7 7 8 9 9 9 9 9 9 9 9 10 11 12 11 13 13 14 14 13 14 15 15 16 16 15 16
5 5 5 4 4 4 4 3 3 4 5 5 5 5 5 5 5 6 6 6 8 8 8 9 9 9 9 9 9 10 10 10 10 13 14 14 14 14 14 14 13 14 14 14 14
4 4 4 4 3 3 3 3 3 4 4 4 4 5 5 5 5 5 5 6 6 8 8 7 8 8 9 9 10 9 10 11 9 11 12 13 13 13 13 12 11 13 13 13 14
4 4 4 4 4 3 3 3 3 3 3 4 4 4 4 5 5 5 6 6 6 7 7 7 8 8 9 9 9 9 8 7 8 10 10 10 9 11 9 10 9 12 10 11 11

GFSSW_700_temp_087.txt.gz
Temp
13 13 13 13 13 13 13 13 13 14 14 14 15 15 15 15 16 16 16 16 16 16 16 16 15 15 15 15 15 15 16 16 16 17 17 17 17 17 17 16 16 15 15 15 15
13 13 13 13 13 13 14 14 14 14 14 14 14 15 15 15 16 16 16 16 16 16 16 15 15 15 15 15 15 15 16 16 16 16 17 17 17 18 17 16 17 16 16 15 15
12 12 13 13 13 13 13 13 14 14 14 15 15 15 15 15 16 16 16 15 15 15 15 15 15 15 15 15 15 15 16 16 16 16 17 17 17 17 18 18 17 16 16 16 15
12 12 12 13 13 13 13 14 14 14 14 14 14 15 15 15 15 15 15 15 15 15 14 14 14 14 15 15 15 15 16 16 17 16 16 17 17 17 18 18 17 17 16 16 15
12 12 12 13 13 13 13 13 14 14 14 14 14 14 15 15 15 14 14 15 15 14 14 14 14 14 14 14 14 14 16 16 16 16 16 17 17 17 17 18 18 17 16 16 16
12 12 13 13 13 13 13 14 14 14 14 14 14 14 14 15 14 15 14 14 14 14 14 14 14 14 15 15 14 14 15 15 15 16 16 16 17 17 17 18 18 18 17 16 16
12 13 13 13 14 14 14 14 14 14 14 14 14 14 15 14 14 14 14 14 14 15 15 14 13 13 13 14 15 15 15 15 16 17 16 15 16 17 17 18 18 18 18 17 16
12 13 13 13 14 14 14 14 14 15 14 14 14 15 15 14 14 14 13 14 14 14 14 14 13 13 14 14 14 13 13 14 17 15 15 15 16 17 17 18 18 18 19 17 16
12 13 13 14 14 14 14 14 15 15 15 14 14 14 14 14 13 14 14 14 14 14 14 13 13 13 13 14 13 14 14 13 14 14 15 15 15 17 17 17 18 19 19 18 16
12 13 13 13 14 14 14 14 15 15 14 14 14 14 13 13 14 14 13 13 13 13 13 13 13 13 13 13 14 15 14 13 13 14 14 15 15 16 16 17 18 19 19 18 17
12 13 13 13 13 14 14 14 14 14 13 13 13 12 11 12 13 14 13 13 13 12 12 13 12 12 13 14 14 14 14 12 14 14 14 14 14 17 16 17 18 18 18 18 18
12 12 12 12 13 13 14 14 14 13 12 11 11 11 11 12 12 11 12 12 12 12 12 12 12 12 13 13 13 13 12 12 14 14 13 14 15 16 16 17 17 18 18 18 18
12 12 12 12 13 13 13 14 14 13 12 10 10 11 11 12 12 12 11 12 12 12 12 12 12 12 12 13 13 12 12 13 13 13 13 14 15 16 16 16 17 18 18 18 18
11 12 12 12 12 13 13 13 12 12 11 10 10 11 10 11 11 11 11 11 12 12 12 12 13 12 12 12 13 12 12 13 13 13 14 13 14 14 16 17 17 17 17 18 18
11 11 12 12 12 12 12 11 11 11 11 9 10 10 10 10 10 11 11 12 12 12 12 12 12 12 12 13 13 12 13 13 12 12 13 13 13 14 16 17 17 17 17 17 17
11 11 11 11 11 11 11 11 10 10 10 9 9 10 10 10 10 11 11 11 12 12 11 12 11 11 12 12 13 12 12 12 12 12 13 13 14 15 16 16 17 17 17 17 17
10 11 11 11 10 10 10 9 9 9 8 8 9 9 9 9 10 10 11 10 9 10 10 11 12 12 12 11 12 12 12 13 13 13 15 14 12 15 15 16 16 16 17 17 17
10 10 10 10 10 10 9 8 8 7 7 7 8 8 8 8 9 10 10 10 10 9 9 10 12 12 13 12 12 12 12 13 13 14 15 13 14 15 15 16 15 16 16 17 17
9 9 9 9 9 9 8 8 7 6 6 7 7 8 8 8 9 9 9 9 9 9 9 9 11 11 12 12 12 12 12 13 13 11 12 14 13 14 15 15 15 16 16 16 17
8 8 8 8 8 8 7 7 6 6 6 6 7 7 7 7 8 8 9 9 9 9 9 9 10 11 12 12 12 13 13 12 12 12 12 14 13 13 15 15 15 16 16 16 16
7 7 7 7 7 7 7 7 6 5 6 6 6 6 6 7 7 8 8 9 9 9 9 9 9 10 11 12 12 12 12 12 12 12 13 13 14 13 13 14 15 15 15 15 16
7 7 7 7 6 6 6 6 6 5 5 6 6 6 6 6 7 7 7 7 8 8 9 9 9 9 10 11 11 11 11 11 13 11 12 13 13 13 13 14 14 14 15 16 16
6 6 6 6 6 6 5 5 5 5 5 5 6 5 5 6 6 7 7 7 7 8 7 8 9 9 10 11 10 10 10 10 9 11 12 13 13 13 13 13 14 14 15 15 15
6 6 6 5 5 5 5 4 4 4 5 5 5 5 5 5 5 5 6 6 7 7 7 7 8 9 10 9 9 9 8 9 10 10 12 13 14 13 13 13 13 14 15 15 14
5 5 5 5 5 5 5 4 4 4 4 4 4 4 4 4 5 5 5 6 7 6 7 6 7 8 9 9 9 9 9 9 8 8 9 10 11 12 12 13 13 14 14 13 13
4 4 4 4 4 4 4 4 4 4 4 4 4 4 4 4 4 4 5 5 5 7 6 7 6 7 7 9 9 9 9 9 9 9 9 6 8 8 8 10 12 12 13 10 11
3 3 3 4 4 3 4 4 3 4 4 4 3 4 4 4 4 5 5 5 5 5 6 6 5 6 8 8 8 9 8 9 8 8 8 8 8 8 9 8 8 9 10 10 10

GFSSW_700_temp_093.txt.gz
Temp
13 13 13 13 14 14 14 14 14 14 14 14 14 14 15 15 15 16 16 16 16 16 16 16 16 16 15 15 13 14 16 19 20 20 19 19 19 19 18 18 17 16 16 15 16
13 13 13 13 14 14 14 14 14 14 14 14 14 15 15 15 15 15 16 16 16 16 16 16 16 16 14 14 15 15 17 18 19 19 19 19 19 19 19 18 17 16 17 16 16
13 13 13 13 14 14 14 14 14 14 14 14 15 15 15 15 15 14 15 15 16 16 16 15 13 13 14 15 16 16 16 17 18 18 18 18 18 19 19 19 19 17 16 16 16
12 13 13 14 14 14 14 14 14 14 15 15 15 15 15 14 15 14 14 15 15 15 15 15 15 13 14 16 16 16 17 17 17 18 18 18 18 18 18 19 19 18 16 17 16
13 13 13 14 14 14 14 15 15 15 15 15 15 15 15 15 14 14 14 15 15 15 14 14 13 14 15 16 17 17 17 17 18 18 18 18 17 18 18 18 19 18 17 17 17
13 13 14 14 14 14 15 15 15 15 15 15 15 15 15 14 14 15 14 14 14 14 14 13 13 14 14 15 15 16 16 17 17 17 18 18 18 18 18 19 18 16 16 14 14
13 13 14 14 14 14 15 15 15 15 16 16 16 15 15 13 14 15 14 14 14 14 13 13 13 13 14 15 16 16 16 17 17 18 18 18 18 18 18 18 18 17 16 15 14
13 13 14 14 14 14 14 15 15 15 16 16 16 15 13 15 15 14 14 13 13 13 13 12 12 13 13 14 15 15 16 17 18 19 18 18 18 18 19 19 19 18 17 15 15
13 13 14 14 14 14 14 15 15 15 15 15 15 15 13 14 14 13 14 13 12 12 11 12 13 13 13 14 15 16 17 18 18 19 18 17 18 18 18 18 18 18 18 16 15
13 13 13 14 14 14 14 15 15 15 15 15 14 14 13 12 14 14 14 14 12 12 11 12 12 13 14 15 16 17 18 19 19 19 18 18 18 18 18 18 18 18 18 18 15
12 12 13 13 14 14 14 15 15 15 14 14 14 14 12 13 13 13 13 13 12 12 13 13 13 14 15 16 16 16 17 17 18 18 18 17 17 17 18 18 18 18 18 18 16
12 12 13 13 14 14 14 14 14 14 12 13 13 12 12 12 12 12 13 12 12 13 14 14 15 15 15 15 16 16 16 17 17 17 17 17 17 17 17 17 18 18 18 18 16
12 12 13 13 13 14 14 14 14 14 13 11 11 11 11 12 12 12 12 13 13 14 15 15 16 16 15 15 15 16 16 16 17 17 17 17 17 17 17 18 18 18 18 18 17
12 12 13 13 13 13 13 13 13 13 13 12 12 11 11 12 12 12 12 12 13 14 14 15 15 15 15 15 16 16 16 16 16 16 17 17 19 18 18 18 18 18 18 18 17
11 12 12 12 12 12 12 13 13 13 17 12 12 12 11 12 12 12 11 12 13 13 14 15 15 15 15 15 15 15 16 16 16 16 17 17 17 18 18 18 18 18 18 19 18
11 11 12 12 12 12 12 12 12 12 16 12 11 12 13 13 13 12 12 12 12 13 14 14 14 14 14 14 14 15 15 15 15 16 17 17 17 18 18 18 18 18 18 18 17
10 11 11 11 11 12 12 12 11 15 12 13 12 12 12 13 13 12 13 14 13 13 15 14 15 15 14 14 15 15 15 16 17 17 18 17 17 18 18 18 18 17 16 15 16
10 10 10 11 11 11 11 9 13 13 12 11 11 12 13 12 13 12 13 14 13 12 13 14 15 15 14 14 14 14 15 16 16 17 18 18 18 18 17 17 16 16 15 15 15
10 10 10 10 10 10 10 11 14 11 10 11 12 13 13 12 11 12 13 13 12 11 11 12 14 13 13 14 14 15 15 15 16 16 17 17 17 16 17 17 17 16 15 15 13
9 9 9 9 9 9 8 11 10 9 9 10 12 11 12 12 12 13 13 12 12 11 11 11 12 12 13 13 14 14 14 15 15 15 15 16 16 16 16 15 16 16 15 13 14
8 8 9 9 9 8 9 11 9 8 8 9 10 11 11 11 11 12 12 12 11 10 10 11 11 12 12 13 14 14 14 13 12 14 13 16 16 15 15 14 14 13 13 12 14
8 6 8 8 7 8 10 9 7 8 8 8 8 9 10 10 10 11 11 11 10 9 9 10 10 10 12 13 12 13 11 11 13 10 9 9 13 12 11 13 13 12 13 14 14
7 6 7 8 8 10 9 8 7 8 8 8 9 9 9 9 9 10 10 9 9 9 9 8 9 10 12 13 11 11 9 10 11 12 11 10 11 11 9 8 9 10 14 13 13
6 6 6 6 6 7 8 8 8 7 7 7 8 8 8 9 9 9 9 9 9 8 8 7 9 10 11 11 11 12 11 12 12 13 11 10 9 9 8 6 8 9 11 13 13
4 5 5 7 7 6 6 7 7 8 7 7 7 8 8 8 8 9 9 9 9 8 8 8 8 9 9 10 11 12 12 12 13 12 10 11 9 9 8 7 8 8 8 11 12
4 3 4 4 4 4 6 6 7 7 7 7 7 8 8 7 7 7 8 7 7 7 7 8 7 8 8 9 10 11 12 12 13 13 12 12 11 9 8 7 8 8 8 9 11
3 4 4 4 5 5 6 7 6 6 6 6 6 6 6 7 6 6 6 6 7 7 7 7 7 8 9 10 11 12 12 12 12 11 11 10 8 9 8 7 7 7 8 9 9

GFSSW_700_temp_096.txt.gz
Temp
13 13 14 14 14 14 14 14 14 15 15 15 15 15 15 15 15 16 16 16 16 16 16 16 16 16 16 16 14 15 16 17 17 14 19 20 20 20 20 18 18 17 16 18 16
13 14 14 14 14 14 14 14 15 15 15 15 15 15 15 15 15 16 15 16 16 16 16 16 16 14 13 14 15 16 17 18 18 18 19 19 20 20 20 20 18 17 16 18 16
13 13 13 14 14 14 14 14 14 15 15 15 15 15 15 15 15 15 16 16 16 16 16 16 13 13 14 15 16 17 17 18 18 19 19 19 19 19 20 20 19 17 17 18 17
13 13 14 14 14 14 15 15 15 15 15 15 15 15 15 15 15 13 14 15 15 15 16 15 14 14 15 15 17 17 18 18 18 18 19 19 19 19 19 19 19 18 17 18 17
13 13 14 14 14 15 15 15 15 15 15 16 16 15 15 15 15 14 14 15 15 15 15 14 14 14 15 16 17 17 18 18 18 18 18 19 19 19 19 19 19 18 17 17 17
13 14 14 14 14 15 15 15 15 16 16 16 16 16 16 15 13 15 15 14 14 14 15 14 14 15 15 16 16 16 17 17 17 18 18 18 19 19 19 19 19 18 17 17 16
13 14 14 14 14 15 15 15 15 16 16 16 16 16 16 15 14 14 15 15 14 14 14 13 14 14 14 15 16 16 17 17 17 18 18 19 19 19 19 19 19 19 17 16 15
13 14 14 14 14 15 15 15 16 16 16 16 16 16 15 15 14 15 14 13 13 12 12 13 13 14 14 15 15 15 16 17 18 18 19 20 19 19 19 19 20 19 18 17 16
13 13 14 14 14 15 15 15 16 16 16 16 15 15 13 15 14 14 14 14 13 12 12 13 13 13 13 14 15 16 17 18 19 19 20 20 19 19 19 19 19 19 19 18 17
13 13 14 14 14 14 15 15 15 15 15 15 15 15 14 13 14 14 13 13 13 13 13 13 13 13 14 15 15 17 18 18 19 19 19 20 20 19 19 19 19 19 18 18 18
13 13 13 14 14 14 15 15 15 15 15 14 13 13 13 14 14 12 13 14 13 12 13 14 14 15 16 16 17 17 17 18 18 18 18 18 19 19 19 18 19 18 18 18 18
13 13 13 13 14 14 14 14 14 14 14 14 14 14 13 14 13 13 14 13 13 13 14 14 15 16 16 16 16 17 17 17 18 18 18 18 18 18 18 18 18 18 18 19 19
12 13 13 13 13 14 14 14 14 14 14 13 12 12 13 13 13 14 13 14 14 15 15 16 17 17 17 17 17 17 17 17 17 17 17 18 18 18 18 18 18 18 18 18 19
12 12 13 13 13 13 14 14 14 14 14 14 13 13 13 13 14 14 13 13 14 15 15 16 16 16 16 16 16 17 17 17 17 17 18 18 19 18 18 19 19 19 18 18 19
11 12 12 13 12 13 13 13 13 13 16 14 14 14 13 13 14 14 13 13 13 14 15 15 16 16 16 16 16 16 16 16 16 16 17 17 18 18 18 18 19 18 18 19 19
11 11 12 12 12 13 13 13 13 12 16 14 14 14 14 15 14 14 14 13 13 14 15 16 16 16 16 16 15 15 16 16 16 16 17 17 17 18 18 18 19 19 18 18 18
10 11 11 12 12 12 12 13 12 14 15 15 15 14 14 15 15 14 14 15 15 14 15 15 16 17 16 15 16 16 16 17 17 17 18 18 18 18 18 18 18 18 16 16 17
10 10 11 11 11 12 12 10 12 16 15 14 14 14 14 14 15 14 14 15 15 14 14 15 15 15 15 14 15 15 15 16 15 16 17 17 17 17 17 17 17 17 16 16 16
10 10 11 11 11 11 11 11 14 14 13 13 13 14 16 14 14 14 15 15 14 13 13 13 13 13 14 14 15 15 15 15 16 16 17 17 17 16 15 15 15 15 16 16 15
9 9 10 9 10 10 9 11 13 11 11 12 13 14 14 15 14 15 14 14 13 12 12 12 12 13 14 13 14 15 15 15 15 14 14 14 14 10 12 14 14 12 12 13 13
8 9 8 8 9 10 9 12 12 11 10 11 12 13 13 13 13 13 14 14 12 11 11 11 12 12 12 13 14 14 13 12 12 12 12 11 14 12 11 10 13 11 11 9 11
8 8 8 9 8 9 11 11 10 10 10 10 10 10 11 12 12 12 13 13 11 11 11 10 10 11 12 12 13 13 11 11 11 13 12 11 12 11 11 10 11 12 11 4 8
7 8 7 8 8 11 11 10 10 10 10 10 11 11 11 11 11 11 12 11 11 10 9 9 9 10 12 13 13 12 12 12 11 10 12 7 8 11 10 11 10 11 9 7 8
6 7 8 7 8 8 9 10 10 10 9 9 9 10 10 10 10 10 11 11 11 10 9 9 9 10 11 11 11 11 12 12 12 12 11 9 10 10 9 10 10 9 11 8 8
5 6 6 7 9 8 8 8 9 10 10 9 9 9 9 10 10 10 10 10 11 10 9 9 9 9 10 10 10 11 11 12 13 13 13 13 11 9 8 8 8 8 8 6 8
4 4 5 5 6 6 7 7 8 9 9 9 9 9 9 10 9 9 9 9 9 8 8 9 9 9 9 10 11 11 12 13 13 13 13 13 9 7 8 8 8 9 7 8 7
2 2 3 4 5 7 7 8 8 8 8 8 8 8 8 9 8 7 7 7 7 8 8 9 9 9 9 10 11 11 9 10 10 11 10 11 8 6 7 6 8 8 8 7 7

GFSSW_700_temp_102.txt.gz
Temp
14 14 14 14 14 14 15 15 15 15 15 15 15 15 15 16 16 16 16 15 16 16 16 16 16 15 16 16 15 13 13 15 15 15 16 17 18 18 18 16 18 17 17 17 18
13 14 14 14 14 14 15 15 15 15 15 15 15 15 15 15 16 16 16 16 16 16 16 16 16 15 15 15 15 14 14 16 16 15 16 17 17 18 18 17 17 17 17 17 18
13 13 14 14 14 14 15 15 15 15 16 16 16 16 16 16 16 16 16 16 16 16 16 16 16 16 16 15 14 14 15 16 16 16 16 16 17 17 18 17 17 17 17 17 18
13 14 14 14 15 15 15 15 15 16 16 16 16 16 16 16 16 16 15 15 15 15 15 15 15 15 16 15 15 14 15 15 15 16 16 16 17 18 18 18 18 17 17 18 17
14 14 14 14 15 15 15 15 16 16 16 16 16 16 16 16 16 16 16 15 15 15 15 15 15 15 14 14 14 14 14 15 15 16 17 17 17 17 18 18 18 18 17 18 17
14 14 14 14 15 15 15 15 16 16 16 16 16 16 16 16 16 16 16 15 16 15 15 14 14 13 13 13 13 14 14 15 16 16 17 16 17 17 18 18 18 18 18 18 18
13 14 14 15 15 15 15 15 15 16 16 16 16 16 16 16 16 16 16 15 15 15 15 14 13 13 13 13 14 14 14 15 16 16 16 17 17 18 18 19 18 18 18 18 17
13 13 14 14 15 15 15 15 16 16 16 16 16 16 16 15 15 16 16 16 15 15 14 14 13 13 12 13 13 14 14 15 17 16 17 16 17 17 18 19 19 19 18 17 17
13 13 14 14 14 15 15 15 15 16 16 16 16 16 16 15 16 15 15 15 15 14 13 13 13 13 13 13 14 15 15 16 16 16 16 17 17 17 18 18 18 19 18 18 17
13 13 14 14 14 15 15 15 15 16 16 16 16 16 16 15 14 15 14 15 15 14 13 13 13 14 14 13 14 15 15 15 16 17 17 17 17 17 17 18 18 18 18 18 17
13 13 13 14 14 15 15 15 15 16 15 15 16 15 15 15 14 14 14 14 14 14 14 13 13 15 15 15 15 15 14 15 16 16 16 16 17 17 17 17 17 18 18 18 18
13 13 13 14 14 15 15 15 15 15 16 16 15 15 14 14 14 14 14 14 14 14 14 14 14 15 15 15 15 15 15 15 15 16 16 16 16 17 17 17 17 18 18 18 18
12 13 13 13 14 14 14 14 15 15 15 15 15 14 14 14 14 14 13 14 13 13 14 14 14 15 15 15 16 16 15 16 16 16 16 16 16 16 17 17 17 17 17 17 18
12 12 13 13 13 14 14 14 14 14 15 14 14 14 14 14 14 14 14 14 14 14 14 14 15 15 15 16 16 16 16 16 15 15 15 15 14 16 16 16 15 16 16 17 18
12 12 12 13 13 13 14 14 14 14 12 14 14 14 14 14 14 14 14 14 14 14 14 15 14 15 15 15 15 15 15 15 15 15 15 15 15 13 14 15 15 15 15 16 17
11 12 12 12 12 13 13 14 14 14 14 14 14 14 14 14 14 14 14 14 14 14 14 14 14 14 14 14 14 14 14 15 15 14 12 15 14 11 12 13 13 13 14 15 15
10 11 12 12 12 12 13 13 13 14 14 14 14 14 14 15 15 14 14 14 14 14 14 14 14 14 14 15 15 15 14 13 10 10 9 14 14 12 11 12 12 12 13 14 14
10 11 11 11 11 12 13 13 13 13 13 13 14 15 14 14 14 15 15 15 14 14 14 13 14 14 14 12 12 13 13 13 9 8 10 14 14 13 12 12 13 13 13 13 13
10 11 11 10 11 12 12 12 12 12 12 12 13 14 13 14 14 14 14 14 13 13 13 13 12 13 13 13 12 12 13 12 12 12 11 12 13 12 12 12 13 13 13 12 13
10 11 10 10 10 11 11 12 11 11 11 12 12 12 12 13 13 13 14 13 12 12 12 12 11 12 12 12 12 11 12 12 12 8 8 11 12 12 12 12 12 12 13 11 12
9 9 9 10 10 10 10 11 10 11 11 11 11 11 11 11 12 12 12 12 12 11 11 11 11 11 11 11 10 11 11 11 11 11 7 5 10 12 11 11 11 12 11 10 11
8 9 8 8 8 9 9 9 10 10 11 11 10 11 10 11 11 11 11 11 11 11 11 11 10 10 10 11 10 10 9 9 9 10 10 10 10 11 11 11 11 11 11 10 10
8 8 8 8 8 8 8 8 9 10 10 10 10 10 10 10 10 10 11 11 11 11 10 10 9 9 9 10 10 10 10 9 10 10 10 8 10 9 9 10 9 10 11 10 10
7 7 7 7 7 7 7 8 9 10 10 9 9 9 10 10 10 10 10 10 10 10 9 9 9 9 8 8 8 8 9 9 9 9 9 9 8 9 9 9 10 10 9 10 10
5 5 6 7 6 7 7 7 8 9 10 9 9 9 9 9 9 9 9 9 10 10 9 9 8 8 8 8 8 8 9 9 9 9 8 9 9 9 9 9 9 9 8 8 8
4 5 6 6 6 6 7 7 7 8 8 8 8 8 8 8 8 8 8 8 9 9 9 9 8 8 8 9 8 8 8 8 8 8 8 7 7 7 7 7 7 8 9 8 8
4 4 4 5 5 5 6 6 6 6 7 8 8 8 8 8 7 7 7 7 8 8 8 8 8 8 8 8 8 8 8 7 7 8 8 7 7 7 7 7 7 8 7 7 8

GFSSW_700_temp_105.txt.gz
Temp
13 13 14 14 14 14 14 14 15 15 15 15 15 15 15 15 16 16 16 15 15 15 15 15 15 15 15 15 14 14 14 16 15 15 15 16 16 16 16 16 16 16 16 16 18
13 13 13 14 14 14 14 15 15 15 15 15 15 15 15 15 15 16 15 15 15 15 15 15 15 15 15 15 14 13 14 15 14 15 15 16 16 16 16 17 17 17 16 17 17
13 13 14 14 14 14 15 15 15 15 16 16 16 16 16 16 16 16 15 15 15 15 15 15 15 15 15 15 14 14 14 14 14 15 15 15 16 16 17 16 16 17 17 17 17
13 14 14 14 15 15 15 15 16 16 16 16 16 16 16 16 16 16 15 15 15 15 15 15 15 15 15 15 14 13 14 13 14 14 15 15 16 17 17 17 17 17 17 17 18
14 14 14 14 15 15 15 16 16 16 16 16 16 16 16 16 16 16 15 15 15 14 14 14 14 14 14 14 14 14 14 14 14 15 15 15 16 17 18 17 17 17 17 17 17
13 14 14 14 15 15 15 16 16 16 16 16 16 16 16 16 16 15 15 15 15 15 14 14 14 13 13 13 13 14 15 15 16 16 16 16 16 17 17 17 17 18 18 18 17
13 13 14 14 14 15 15 16 16 16 16 16 16 16 16 16 16 15 15 16 15 15 15 14 13 13 13 13 13 13 14 15 16 16 16 16 16 16 17 17 17 19 18 18 17
13 13 14 14 14 15 15 15 16 16 16 16 16 16 16 16 15 15 15 15 15 15 14 13 13 13 13 14 14 14 14 15 16 16 16 16 16 17 17 17 17 18 18 18 18
13 13 14 14 14 15 15 15 16 16 16 16 16 16 16 15 15 15 15 14 14 14 13 12 13 13 13 14 14 15 15 15 16 16 15 15 16 16 17 17 17 17 17 17 17
13 13 14 14 14 15 15 15 16 16 16 16 16 15 15 15 15 14 14 15 14 14 14 13 14 14 14 14 14 14 14 15 15 16 15 16 16 16 16 17 16 16 16 17 17
13 13 13 14 14 14 14 15 15 16 16 16 16 15 15 14 15 14 14 14 14 14 13 14 14 14 14 14 14 14 14 15 15 15 15 15 16 16 16 16 16 16 16 16 16
12 13 13 14 14 14 14 15 15 15 16 16 16 15 15 14 14 14 14 14 14 14 13 13 14 14 14 15 15 15 15 15 15 15 15 15 15 15 15 15 15 15 15 16 16
12 13 12 13 14 14 14 15 15 15 15 15 15 15 14 14 14 14 14 14 14 14 13 13 14 14 14 14 14 14 15 15 14 15 15 15 15 15 15 14 14 15 15 15 16
12 12 13 13 13 14 14 14 14 14 14 15 15 14 14 14 14 14 14 14 14 14 13 14 14 14 14 14 14 15 14 14 15 15 14 15 13 15 15 14 15 15 15 15 15
11 12 12 13 13 13 14 14 14 14 12 14 14 14 14 14 14 14 14 14 14 14 14 14 14 14 14 14 14 13 14 14 14 14 14 14 14 12 13 14 14 14 14 14 15
11 12 12 12 13 13 13 13 13 13 13 14 14 14 14 14 14 14 14 14 14 14 14 14 14 13 14 14 14 13 14 14 14 14 11 14 12 12 12 12 12 13 13 13 13
10 11 12 12 12 12 12 13 13 13 13 13 13 14 14 14 14 14 14 14 14 14 14 14 14 13 13 14 14 14 13 12 10 9 9 13 12 13 12 12 12 12 12 13 13
10 11 11 11 12 12 12 12 12 12 12 13 13 13 13 14 14 14 14 14 13 13 13 13 13 13 13 12 12 12 12 11 9 7 9 12 12 12 12 11 12 12 12 12 12
10 10 10 11 11 11 11 12 11 11 11 12 13 13 13 13 13 14 13 13 12 13 13 12 12 12 12 12 12 11 11 11 11 10 8 11 12 12 12 11 11 11 12 12 12
10 10 9 10 10 11 11 11 10 10 10 11 12 12 12 12 12 13 12 12 12 11 11 11 11 11 11 12 11 11 10 11 10 7 8 10 11 11 11 11 11 11 11 11 11
9 9 9 9 10 10 11 10 10 10 10 10 11 11 11 10 11 12 11 11 10 10 10 11 11 11 11 10 10 10 10 9 9 9 6 4 9 11 11 11 11 10 10 10 10
9 8 8 8 9 9 8 9 9 10 10 10 10 10 10 10 10 11 11 10 10 10 10 10 10 10 9 10 9 9 9 9 8 8 8 8 8 10 10 10 10 8 9 9 10
8 7 8 7 7 7 8 8 8 9 10 10 10 10 10 10 10 10 10 10 10 10 10 10 9 9 9 9 9 9 9 9 8 8 8 6 9 9 9 9 9 8 8 8 9
7 7 7 7 6 7 8 8 8 9 9 9 9 9 9 9 9 9 9 9 10 10 9 9 9 8 8 8 8 8 9 8 8 8 8 8 8 8 8 9 8 8 7 8 8
6 6 7 6 6 6 6 7 7 8 8 8 9 8 9 9 9 9 8 9 9 9 9 8 8 8 8 8 8 8 8 8 8 8 8 8 8 8 8 7 8 7 7 7 7
5 6 6 6 6 6 6 6 6 7 7 8 8 8 8 8 8 8 8 8 8 9 9 8 8 8 8 8 8 8 8 8 8 7 7 7 7 7 6 6 6 7 7 6 7
4 5 5 5 5 5 5 6 6 6 7 7 6 6 7 7 7 7 7 8 8 8 8 7 7 7 7 8 7 7 8 8 8 7 7 7 7 6 6 6 6 6 6 5 5

GFSSW_700_temp_108.txt.gz
Temp
13 13 13 13 13 14 14 14 15 15 15 15 15 15 15 15 15 15 15 15 15 15 15 15 15 15 15 15 15 15 15 15 14 14 15 15 16 16 16 16 16 16 16 15 16
13 13 13 13 14 14 14 15 15 15 15 15 15 15 15 15 15 15 15 15 15 15 15 15 15 15 15 15 14 13 14 14 14 14 14 15 15 16 16 16 17 17 17 16 16
13 13 13 14 14 14 15 15 15 15 15 16 16 16 16 16 16 15 15 15 15 15 15 15 15 15 15 14 13 13 13 13 14 14 14 15 16 15 16 16 16 17 17 16 16
13 13 14 14 14 15 15 15 15 15 16 16 16 16 16 16 16 15 15 15 15 15 15 15 15 15 15 14 13 13 13 13 14 14 14 15 15 15 16 16 17 17 17 17 16
12 13 14 14 15 15 15 16 16 16 16 16 16 16 16 16 16 15 15 14 14 14 14 14 14 14 14 14 13 13 14 14 14 15 15 15 16 16 16 17 17 17 18 17 17
12 13 13 14 15 15 15 16 16 16 16 16 16 16 16 16 15 15 14 14 14 14 14 14 14 14 14 14 13 14 14 14 15 15 15 15 16 16 16 17 17 17 18 18 18
12 13 13 14 14 15 15 16 16 16 16 16 16 16 16 15 15 15 14 14 14 15 14 14 13 13 14 14 14 14 14 15 15 15 15 15 16 16 16 16 17 17 18 18 18
12 13 13 14 14 15 15 16 16 16 16 16 16 16 16 15 14 14 14 14 14 14 14 13 13 13 13 13 14 14 14 15 15 15 15 16 16 16 16 16 17 17 17 18 18
12 13 13 14 14 15 15 15 16 16 16 16 16 15 15 15 15 14 14 14 13 13 13 13 13 14 13 14 14 14 14 15 15 15 15 15 15 15 16 16 16 16 17 17 17
12 13 14 14 14 15 15 15 15 16 16 16 15 15 15 14 14 14 14 14 13 13 13 13 14 14 14 14 14 13 14 15 15 15 15 15 15 15 15 15 16 16 16 16 17
12 13 13 14 14 14 15 15 15 16 16 16 15 15 15 14 14 14 14 14 14 14 13 13 14 14 14 14 13 14 14 14 15 15 15 15 14 14 15 15 15 16 16 16 16
12 12 13 13 14 14 15 15 15 15 15 16 16 15 15 14 14 14 14 14 13 13 13 14 14 13 14 14 14 14 14 15 15 14 15 15 15 14 14 14 14 14 15 15 16
12 12 12 13 13 14 14 14 14 15 15 15 15 15 14 14 14 14 14 13 13 13 13 14 13 14 14 14 14 14 14 14 14 14 14 14 14 14 13 13 13 14 14 14 15
12 12 12 13 13 13 13 14 14 14 14 14 14 14 14 14 14 14 14 13 13 13 13 14 13 13 14 14 14 14 14 14 14 14 14 14 13 14 14 13 13 13 13 14 14
11 12 12 13 13 13 13 13 13 14 11 14 14 14 14 14 14 14 14 14 14 13 13 13 13 13 13 13 13 13 13 14 14 14 14 13 13 13 13 13 13 13 13 13 13
11 11 12 12 12 13 13 13 13 14 13 13 13 14 14 14 14 14 14 14 14 13 14 14 13 13 13 13 13 13 13 14 13 13 11 12 12 13 12 12 12 12 12 13 13
10 11 11 12 12 12 12 12 13 13 13 13 13 13 14 14 14 14 14 13 13 13 13 13 13 13 12 13 12 12 12 11 10 9 8 12 12 12 12 11 11 12 12 12 12
10 10 10 11 12 12 12 12 12 12 12 12 12 13 13 13 14 14 14 13 13 13 12 13 13 12 12 11 11 11 11 11 9 6 8 11 11 11 11 11 11 11 11 11 11
10 10 10 11 11 11 11 11 11 11 11 11 12 12 13 13 13 13 13 12 12 12 12 12 12 12 11 11 11 10 10 10 10 8 7 10 11 11 11 11 11 11 11 11 11
10 10 10 10 10 10 11 11 10 10 10 11 11 12 11 12 12 12 12 11 11 11 11 10 11 11 11 11 10 10 9 9 9 6 7 9 10 10 11 10 10 11 11 10 10
9 9 9 9 9 9 10 10 10 10 10 10 10 11 11 11 11 11 11 10 10 10 10 10 10 10 10 10 10 10 9 9 8 8 5 3 8 10 10 10 10 10 10 9 9
9 8 9 9 9 9 9 9 9 9 10 10 10 10 10 10 10 10 10 10 10 10 10 10 10 9 9 10 9 9 9 9 8 7 7 7 7 9 9 9 9 9 9 9 9
8 8 8 8 8 8 8 8 9 9 9 9 9 9 9 9 10 9 9 9 9 9 9 9 9 9 9 9 9 8 8 8 8 8 7 6 8 8 8 8 8 8 8 8 8
7 7 7 7 7 7 7 7 8 8 8 9 9 9 9 9 9 9 9 9 9 9 9 8 8 8 8 8 8 8 8 8 8 7 7 7 8 8 7 7 7 7 7 7 8
6 6 7 6 6 6 7 7 7 8 8 8 8 8 8 8 8 8 8 9 9 8 8 8 8 8 7 7 7 7 8 8 8 8 7 8 7 8 7 7 7 6 6 7 7
5 5 6 6 5 5 5 6 6 6 7 7 7 7 8 8 8 8 8 8 8 8 8 8 7 7 7 8 7 7 8 7 8 8 8 8 7 7 7 6 6 6 6 6 6
5 5 5 5 5 5 5 5 5 6 6 6 6 6 7 7 7 7 7 7 7 7 7 7 7 7 6 7 6 7 8 8 8 8 7 6 6 6 6 5 5 5 6 5 5

GFSSW_700_temp_111.txt.gz
Temp
12 13 13 13 13 14 14 14 14 14 14 15 15 15 15 15 15 15 15 15 15 15 15 15 15 15 15 15 15 15 15 14 14 14 14 15 15 16 16 16 16 16 16 16 15
13 13 13 13 14 14 14 14 15 15 15 15 15 15 15 15 15 15 15 15 15 15 15 15 15 15 15 15 14 14 14 14 13 14 14 15 15 16 16 16 16 16 17 17 16
12 13 13 14 14 14 15 15 15 15 15 15 15 15 15 15 15 15 15 15 15 15 15 15 15 15 14 14 14 14 14 14 14 14 14 15 15 16 16 16 16 17 17 17 17
12 13 13 14 14 15 15 15 15 15 15 15 16 16 16 16 15 15 15 15 15 15 15 14 15 14 14 14 13 14 14 13 14 15 14 15 15 15 16 16 16 17 17 17 17
12 13 13 14 14 15 15 15 15 16 15 16 16 16 16 16 16 15 15 15 15 15 14 14 14 14 14 13 14 13 13 14 14 14 14 15 15 16 16 16 17 17 17 18 17
12 13 13 14 14 14 15 15 16 16 16 16 16 16 15 15 15 15 15 15 14 14 14 14 14 14 14 14 13 13 14 14 15 15 15 16 15 15 16 16 17 17 17 18 18
12 13 13 14 14 14 15 15 16 16 16 16 16 16 15 15 15 14 14 14 14 14 14 13 13 14 14 13 14 13 14 15 15 15 15 16 15 16 16 16 16 17 17 18 18
12 13 13 13 14 14 15 15 16 16 16 16 16 16 15 15 15 15 14 14 14 14 14 13 13 14 14 13 14 14 15 15 15 14 15 15 15 15 15 15 16 16 17 17 18
12 13 13 13 14 14 15 15 15 16 15 15 15 15 15 14 14 14 14 13 13 13 13 13 13 14 14 14 14 14 14 15 15 15 15 15 15 15 15 15 15 16 16 17 17
12 12 13 13 14 14 15 15 15 15 15 15 15 15 14 14 14 14 14 13 13 13 13 13 13 14 13 13 14 13 14 15 15 15 15 14 15 15 15 15 15 15 16 16 17
12 12 13 13 14 14 14 15 15 15 15 15 15 15 14 14 14 14 13 13 13 13 13 13 14 13 13 14 14 14 14 15 15 15 15 14 14 14 14 14 14 15 15 16 16
12 12 12 13 13 14 14 14 15 15 15 15 15 14 14 14 13 13 14 13 13 13 13 13 13 14 14 14 14 14 14 14 15 14 14 14 14 14 14 14 14 14 14 14 14
12 12 12 13 13 13 14 14 14 15 15 14 14 14 14 13 13 14 14 13 13 13 13 13 13 13 14 14 14 14 14 14 14 14 14 14 14 14 13 13 13 13 14 14 14
11 12 12 13 13 13 13 14 14 14 14 14 14 13 14 14 13 14 13 13 13 13 13 13 13 13 13 13 13 13 13 13 14 14 14 14 15 14 13 12 12 12 13 13 13
11 12 12 12 13 13 13 13 14 14 14 13 14 13 14 14 14 14 13 13 13 13 13 13 13 13 13 13 13 12 13 13 14 13 13 12 13 13 13 12 12 12 12 12 12
10 11 12 12 12 12 13 13 13 14 13 13 13 13 14 13 13 14 14 14 13 13 13 13 13 12 12 12 13 13 13 13 13 12 13 12 12 14 12 12 12 12 12 12 12
10 11 11 11 12 12 12 12 13 13 13 12 13 13 13 13 13 14 14 13 13 13 13 13 12 12 12 12 12 12 12 14 13 13 14 11 11 13 12 12 12 12 11 11 11
10 11 11 11 11 11 12 12 12 12 12 12 12 13 13 13 13 13 14 13 13 13 13 12 12 12 11 11 11 11 11 12 12 13 13 11 12 12 11 11 11 11 11 11 11
10 10 11 11 11 11 11 11 11 11 11 11 12 12 12 13 13 13 13 12 12 12 12 12 12 11 11 11 11 11 10 10 9 9 9 11 11 11 11 11 10 10 10 11 10
10 10 10 10 10 10 10 11 10 11 11 11 11 12 12 12 12 12 12 11 11 11 11 11 11 11 11 11 10 10 9 10 10 11 10 11 10 11 11 10 10 10 10 10 10
10 9 10 10 10 9 9 10 9 10 10 10 10 11 11 11 11 11 10 10 10 10 10 10 10 10 10 10 10 9 9 9 8 8 11 10 11 10 9 9 9 9 9 9 9
9 9 9 9 9 9 8 9 9 9 10 10 10 10 10 10 10 10 10 10 10 10 10 10 10 10 9 10 10 9 9 8 9 9 8 8 9 9 9 9 8 8 8 8 8
8 8 9 9 8 8 8 8 8 9 9 9 9 9 9 10 10 10 10 9 9 9 9 9 9 9 9 9 9 9 8 8 7 7 8 9 9 8 8 8 7 7 7 7 7
8 7 8 8 8 7 7 7 8 8 8 9 9 9 9 9 9 9 9 9 9 8 8 8 8 8 9 9 8 8 8 7 7 7 8 8 8 8 8 7 7 6 6 6 6
7 7 7 6 6 7 7 7 7 7 7 8 8 8 8 8 8 9 8 8 8 8 8 8 7 7 7 7 7 7 7 7 7 8 6 8 8 7 7 7 6 6 6 6 6
5 6 6 6 6 5 6 6 6 6 7 7 7 7 8 8 7 8 8 8 8 7 7 7 6 7 6 6 6 6 7 7 7 7 7 8 7 7 7 6 6 6 5 6 5
5 5 5 5 5 5 5 5 5 6 5 6 6 6 7 7 7 7 7 7 7 7 7 6 6 6 6 6 6 6 8 8 8 8 7 6 6 6 6 6 5 5 5 5 5

GFSSW_700_temp_114.txt.gz
Temp
12 13 13 13 14 14 14 14 14 14 15 15 15 15 15 15 15 15 15 15 15 15 15 15 15 15 15 15 15 15 15 17 16 15 15 15 16 16 16 16 16 16 16 16 16
12 13 13 13 14 14 14 15 15 15 15 15 15 15 15 15 15 15 15 15 15 15 15 14 15 15 15 15 14 14 16 16 15 15 15 15 15 15 16 17 17 16 17 17 17
12 13 13 14 14 14 15 15 15 15 15 15 15 15 15 16 15 15 15 15 15 15 15 15 14 14 13 13 13 14 15 15 15 15 14 15 15 16 16 16 16 16 16 17 17
12 13 13 14 14 14 15 15 15 16 16 16 16 16 16 16 14 16 15 15 15 15 15 14 14 14 13 13 13 14 14 14 14 14 14 15 15 15 15 16 16 17 17 17 17
12 13 13 14 14 14 15 15 15 16 16 16 16 16 16 16 15 15 15 15 15 15 15 14 14 13 14 14 13 13 14 14 14 14 14 15 15 15 15 16 17 17 17 18 18
12 13 13 14 14 15 15 15 15 16 16 16 16 16 15 15 15 15 15 15 15 15 14 14 13 13 13 13 13 14 13 14 14 15 15 15 15 15 16 16 16 17 17 17 17
12 13 13 14 14 15 15 15 15 16 16 16 16 16 15 15 15 15 15 15 14 14 14 14 14 13 13 13 14 13 14 15 15 15 15 15 16 15 16 16 16 17 17 17 17
12 13 13 14 14 15 15 15 15 16 16 16 16 16 15 15 15 15 15 14 14 14 14 14 14 13 13 14 14 15 15 17 15 15 15 16 17 15 15 16 16 16 17 17 17
12 13 13 13 14 14 15 15 15 15 16 15 15 15 14 14 14 15 14 14 14 14 14 13 13 13 13 14 16 16 17 16 16 15 15 16 16 15 15 15 15 15 16 16 16
11 12 13 13 14 14 15 15 15 15 15 15 15 14 14 14 14 14 14 13 13 13 13 13 13 14 14 16 18 16 17 16 16 15 15 15 15 14 14 14 14 15 15 16 16
11 12 12 13 13 14 14 15 15 15 15 15 15 15 14 14 14 14 13 13 13 12 13 13 14 16 15 14 14 15 15 16 15 15 15 15 14 14 14 14 14 14 14 14 14
12 12 12 13 13 14 14 14 15 15 15 15 15 14 14 14 13 13 14 13 13 14 13 14 15 14 14 14 14 14 15 16 15 14 14 14 14 13 14 14 14 14 14 14 14
12 12 12 13 13 14 14 14 14 15 15 14 14 14 13 13 13 13 13 13 13 13 14 15 14 14 14 14 14 15 15 15 15 15 15 15 16 13 13 13 12 12 12 13 13
12 12 12 13 13 13 14 14 14 15 14 13 13 13 13 13 13 13 13 13 13 14 13 15 13 13 14 14 14 16 14 14 14 15 17 15 17 15 14 13 12 13 13 13 13
11 12 12 13 13 13 13 14 14 14 18 14 13 14 13 13 13 13 13 13 14 14 14 14 13 13 14 13 13 14 13 14 14 15 15 16 16 16 13 13 12 11 13 13 12
11 12 12 12 12 12 13 13 14 14 16 13 13 13 13 13 13 14 13 13 13 13 13 13 13 13 13 12 13 13 13 14 13 15 17 16 15 17 15 14 13 12 11 12 11
11 12 12 12 12 12 12 13 13 15 14 13 14 13 14 14 13 13 13 13 14 14 14 13 13 12 12 13 13 13 14 17 17 18 18 14 14 16 13 12 11 12 11 11 11
10 11 11 12 12 12 12 11 13 13 13 12 12 13 14 13 13 13 13 14 13 13 15 15 14 12 12 12 12 12 13 15 15 17 17 14 15 14 12 11 12 11 10 11 10
10 11 11 11 11 11 11 12 14 12 11 12 12 14 14 13 14 13 13 14 12 13 14 14 14 12 12 11 12 12 13 12 13 13 14 15 14 13 12 11 10 10 9 9 10
10 10 10 11 11 11 10 11 11 11 12 11 13 13 14 13 13 14 13 12 12 12 13 13 13 12 11 11 10 12 11 13 13 14 14 16 14 13 12 12 10 9 9 8 9
10 9 10 10 10 10 10 11 9 10 11 11 12 12 13 13 13 13 13 11 11 11 11 12 12 12 11 12 12 11 12 11 11 12 14 15 15 12 11 10 9 8 8 8 8
10 8 10 9 9 10 9 8 9 9 10 10 10 11 12 11 12 12 12 11 11 10 11 11 12 12 13 10 10 10 11 11 12 13 12 12 12 11 10 9 8 7 7 8 8
9 9 9 9 9 9 8 8 9 8 8 9 10 10 10 11 11 11 10 10 10 10 10 10 11 12 12 11 10 10 11 10 10 9 10 12 12 11 10 10 8 6 6 7 7
8 7 8 8 8 8 7 8 8 8 9 9 9 10 10 10 10 10 10 9 9 9 9 9 10 10 12 12 11 10 10 10 9 10 11 11 11 11 10 9 7 5 7 7 7
7 6 7 6 6 7 7 7 7 8 8 8 8 9 9 10 10 10 10 9 9 8 8 8 9 9 9 9 9 9 10 10 10 10 10 10 10 10 9 6 5 5 6 6 6
5 6 6 6 6 6 5 6 6 6 7 7 8 7 8 9 9 10 9 9 9 7 8 8 8 8 8 9 9 9 9 9 9 9 9 9 9 9 7 6 5 5 6 6 6
5 5 5 3 4 5 5 5 5 5 6 6 7 7 7 7 8 7 8 7 7 7 7 7 7 7 9 9 8 9 9 9 9 9 9 9 8 6 6 5 5 6 5 5 5

GFSSW_700_temp_117.txt.gz
Temp
12 13 13 13 13 14 14 14 14 15 15 15 15 15 15 15 15 15 15 15 15 15 15 15 15 15 15 13 14 15 17 19 19 18 18 18 17 18 18 18 18 17 16 15 16
12 13 13 13 14 14 14 15 15 15 15 15 15 15 15 15 15 15 15 15 15 15 15 15 15 15 14 15 15 16 18 19 18 17 17 17 17 17 17 18 18 17 16 16 17
12 13 13 13 14 14 15 15 15 15 15 15 15 16 16 15 15 15 15 15 15 15 15 15 13 14 15 15 16 17 17 17 17 17 16 17 17 17 18 17 17 17 16 16 17
12 13 13 14 14 14 15 15 15 15 16 16 16 16 16 16 15 16 16 15 15 15 15 15 14 14 15 16 16 16 17 17 17 16 16 17 17 17 17 17 17 17 16 16 17
12 13 13 14 14 14 15 15 15 16 16 16 16 16 16 15 15 16 16 16 15 15 15 14 14 14 16 17 16 16 16 16 16 16 16 16 17 17 17 16 16 16 17 14 14
12 13 13 14 14 14 15 15 15 16 16 16 16 16 16 14 15 15 16 15 15 15 14 13 14 15 15 16 16 16 16 16 16 16 16 17 17 17 16 16 16 16 15 15 13
12 13 13 14 14 14 15 15 15 16 16 16 16 16 15 15 16 15 15 15 15 14 13 13 13 14 15 16 16 16 16 17 17 17 17 17 17 16 16 16 16 15 15 15 14
12 13 13 14 14 14 15 15 15 16 16 16 16 16 14 16 16 15 15 15 15 14 13 13 13 14 15 15 16 17 18 19 17 17 17 17 18 16 16 16 15 14 14 14 15
12 12 13 13 14 14 15 15 15 15 16 16 15 15 14 15 15 15 15 13 14 14 13 14 13 14 15 16 18 18 20 19 18 17 17 17 18 16 16 15 14 14 13 13 12
12 12 13 13 14 14 15 15 15 15 15 15 15 15 15 14 15 15 15 13 13 13 13 13 14 15 16 18 20 20 19 19 18 18 17 18 17 16 16 16 14 13 12 12 13
12 12 13 13 14 14 14 14 15 15 15 13 14 14 13 14 15 14 14 13 13 13 15 14 16 18 18 17 17 17 18 18 18 17 17 18 17 16 15 16 15 14 13 12 13
12 12 13 13 13 14 14 14 15 15 14 15 15 15 15 14 13 13 14 13 14 15 15 16 17 17 16 16 16 17 18 18 18 17 16 18 17 16 15 15 15 14 13 12 11
12 12 12 13 13 14 14 14 14 15 14 14 15 14 14 14 14 14 13 14 15 16 16 17 17 15 16 16 17 18 18 18 17 17 17 17 18 17 15 15 14 14 13 12 11
12 12 12 13 13 14 14 14 14 15 15 15 14 14 14 14 15 15 14 15 15 16 16 17 16 16 16 16 16 18 16 16 16 17 19 17 19 17 16 15 15 14 13 12 11
12 12 12 13 13 13 14 14 14 15 18 16 15 14 14 15 15 14 14 14 16 16 16 17 16 16 16 16 15 17 15 16 16 17 17 18 19 18 16 16 15 14 12 12 11
12 12 12 13 13 13 13 14 14 14 18 15 15 14 15 15 15 15 14 14 15 15 15 16 15 15 16 15 15 15 15 16 17 17 19 19 19 19 18 16 15 14 12 11 10
12 12 12 12 12 13 13 14 13 17 16 16 16 16 16 16 16 15 15 15 16 16 16 16 15 15 14 15 15 15 16 18 20 20 21 17 17 18 16 15 14 13 12 11 11
11 12 12 12 12 13 13 11 14 17 17 15 16 16 16 17 16 15 16 16 16 16 17 17 17 15 14 15 15 15 15 17 17 19 20 17 18 16 15 14 13 12 12 11 10
11 11 12 12 12 12 12 13 15 16 15 15 15 16 16 16 15 15 16 16 17 15 16 17 17 14 14 14 14 15 15 15 15 17 18 18 17 16 14 14 13 12 12 11 9
10 10 10 11 11 11 10 13 14 13 13 13 15 16 17 16 15 16 16 16 15 14 14 15 15 15 14 13 13 14 14 15 16 17 17 18 18 17 14 14 13 11 11 11 9
10 10 9 11 11 11 12 14 13 12 12 13 14 15 15 16 16 16 16 15 14 14 14 15 14 15 14 14 14 14 14 14 15 15 17 17 18 15 14 13 12 11 10 9 8
9 9 9 10 9 11 12 13 11 12 11 12 12 14 15 15 15 15 15 15 13 13 14 14 14 15 15 14 13 13 13 14 14 15 15 15 15 14 13 12 11 11 9 8 7
9 9 9 10 10 12 12 11 10 11 11 12 12 13 13 13 13 14 14 12 11 12 12 13 13 14 15 15 14 12 13 13 13 13 13 14 15 14 13 12 12 10 8 7 6
8 8 8 8 9 9 11 11 11 9 10 10 12 12 12 12 13 13 13 11 11 11 11 11 12 12 14 14 13 13 13 13 13 13 13 14 14 13 12 11 10 8 7 6 5
6 6 7 9 9 9 9 10 11 11 9 10 11 11 12 12 12 12 12 12 10 10 10 10 11 11 12 12 12 12 12 12 12 13 13 13 12 12 11 10 9 8 7 6 5
5 4 5 6 6 6 8 9 9 10 10 10 10 11 11 11 12 12 12 12 11 11 10 10 10 10 10 11 11 11 12 12 12 12 12 12 12 11 9 9 8 7 6 5 4
5 5 5 5 6 6 8 8 8 9 8 9 9 9 10 10 10 10 10 11 10 10 10 10 10 9 11 11 11 11 11 12 12 12 12 11 11 9 8 7 6 6 5 5 4

GFSSW_700_temp_123.txt.gz
Temp
12 12 13 13 14 14 14 14 15 15 15 15 15 15 15 16 16 16 16 16 15 15 15 15 15 16 16 16 16 16 16 17 19 18 18 18 18 18 18 18 16 17 17 16 16
12 12 13 13 14 14 15 15 15 15 15 16 16 16 16 16 16 16 16 16 16 15 15 15 16 15 16 16 16 16 17 18 18 18 18 18 18 18 18 17 16 16 16 16 15
12 12 13 13 14 14 15 15 16 16 16 16 16 16 16 16 17 16 17 16 16 16 15 15 14 14 15 16 17 18 18 18 18 18 17 18 18 18 18 17 17 17 17 16 15
12 12 13 13 14 14 15 15 16 16 16 16 16 16 16 16 16 17 17 17 16 16 16 15 16 15 15 16 17 18 18 18 18 18 17 18 18 18 18 17 17 16 16 16 15
12 12 13 13 14 14 15 15 16 16 16 16 16 16 16 16 17 17 17 17 17 16 16 15 15 15 16 16 17 18 18 18 18 18 18 18 18 17 17 17 17 16 16 16 15
12 12 13 13 14 14 15 15 16 16 16 16 16 16 16 16 16 17 17 17 17 16 16 16 15 15 16 16 17 17 17 18 18 18 18 18 17 17 17 17 16 16 15 15 15
12 12 13 13 14 14 15 15 16 16 16 16 16 16 16 17 17 16 17 17 17 16 16 15 14 15 15 16 17 17 17 18 18 18 18 18 17 17 17 17 16 15 15 14 14
12 12 13 13 14 14 15 15 16 16 16 16 16 16 16 16 17 17 17 17 17 16 16 14 14 15 15 16 17 17 17 18 18 18 19 18 17 17 17 16 15 15 14 14 12
12 12 13 13 14 14 15 15 15 16 16 16 16 16 17 16 16 17 17 16 15 16 16 15 15 16 16 16 16 18 18 18 18 19 18 18 17 17 17 16 16 15 14 13 14
12 12 13 13 14 14 14 15 15 15 15 15 15 15 16 16 16 16 16 14 14 14 15 15 16 16 16 17 17 19 19 19 19 18 19 18 17 17 16 16 15 14 14 13 13
12 12 13 13 13 14 14 15 14 15 15 15 15 15 15 15 16 16 16 15 14 14 15 15 16 16 17 17 18 18 19 19 19 18 19 19 17 17 17 16 15 14 13 14 13
12 12 13 13 13 14 14 14 15 15 15 16 16 15 15 15 15 15 15 15 14 15 16 16 17 17 18 18 18 18 18 19 19 19 19 18 18 18 17 16 15 14 13 12 14
12 12 13 13 13 14 14 14 14 14 15 16 16 16 15 15 15 15 16 15 15 16 17 17 17 17 18 18 18 18 18 18 18 18 18 18 18 17 17 16 15 14 13 13 12
12 12 13 13 13 14 14 14 14 14 15 16 16 15 15 15 16 16 16 16 16 17 17 18 18 17 17 18 18 17 17 17 17 18 18 18 17 17 17 16 15 14 13 12 11
12 12 13 13 13 13 14 14 14 14 13 17 16 16 15 16 16 16 16 15 16 17 17 18 18 17 17 17 17 17 17 17 17 17 17 17 18 17 17 16 15 14 13 12 11
12 13 13 13 13 14 14 14 14 13 14 17 17 16 16 16 16 16 16 16 16 16 17 17 17 17 17 17 17 16 17 17 17 17 16 18 18 16 16 16 15 14 13 13 12
12 13 13 13 13 13 14 14 13 13 18 18 17 16 16 16 16 16 16 16 16 16 17 17 17 17 17 17 16 17 16 16 14 14 14 18 18 18 17 16 16 15 13 12 12
12 13 13 13 13 13 13 14 13 16 17 18 18 17 17 17 17 17 17 16 16 16 17 17 17 17 17 16 16 16 16 16 14 12 15 18 18 17 17 16 15 14 13 12 12
12 12 13 13 13 13 13 12 14 16 16 17 18 18 17 18 18 17 17 17 17 17 17 17 17 17 16 16 16 16 16 16 16 16 16 17 16 16 16 15 14 13 13 12 12
11 12 12 12 13 12 12 13 14 15 16 16 17 17 18 18 18 18 18 17 17 17 17 17 16 17 17 16 16 16 15 15 15 13 13 16 16 15 15 14 14 13 13 12 12
11 11 11 12 12 11 12 13 14 15 15 15 15 15 16 17 17 18 18 18 17 17 17 16 16 16 16 16 16 16 15 15 15 15 13 11 14 15 15 14 14 13 13 12 12
10 11 9 10 11 11 12 13 14 14 14 14 14 15 15 16 16 17 17 17 17 16 16 15 15 15 15 16 16 16 16 15 15 14 15 15 15 15 15 14 14 13 13 12 12
10 10 9 9 10 11 12 12 13 14 14 14 14 14 14 15 15 16 16 15 16 16 15 15 14 15 15 16 16 15 16 15 14 14 14 13 14 14 14 13 13 12 12 11 11
9 10 10 10 10 10 11 12 13 14 13 13 13 14 14 14 15 15 15 14 14 15 15 14 14 13 13 13 13 14 14 14 14 14 14 14 14 15 13 13 12 11 10 9 9
8 8 7 9 10 9 10 11 12 13 13 13 13 12 13 13 14 14 14 14 13 13 14 13 13 13 13 13 13 13 13 13 14 14 14 14 14 14 14 12 11 10 10 8 8
6 8 7 8 8 9 10 10 11 12 12 12 12 12 12 13 13 13 13 14 14 13 12 12 12 11 11 12 12 12 12 12 13 13 13 13 13 13 12 11 10 10 9 9 9
7 7 7 8 8 8 9 9 10 11 11 12 12 12 11 11 12 12 12 13 12 13 12 11 11 11 11 11 11 11 12 12 12 13 13 13 11 11 11 10 9 9 9 8 8

GFSSW_700_temp_129.txt.gz
Temp
11 12 12 12 13 13 13 14 14 14 15 15 15 15 15 15 15 15 15 15 15 15 15 15 15 16 16 16 15 15 16 16 16 17 18 17 16 16 16 16 16 16 15 15 15
11 11 12 12 13 13 14 14 14 15 15 15 15 15 15 15 15 16 16 16 15 15 15 15 16 16 16 16 15 16 16 16 17 17 17 17 17 17 17 16 16 16 16 15 15
11 11 12 12 13 13 14 14 15 15 15 15 15 15 15 15 16 16 16 16 16 15 15 15 16 16 15 16 15 15 16 17 17 17 17 17 17 17 17 16 16 16 16 15 14
11 11 12 12 13 13 14 14 15 15 15 15 15 16 15 15 15 16 16 16 16 16 15 15 15 15 16 15 15 15 17 17 17 17 17 17 17 16 16 17 16 15 15 15 15
11 11 12 12 13 14 14 14 15 15 16 16 16 16 16 15 16 16 16 16 16 16 15 15 15 15 15 16 16 16 17 16 17 17 17 17 17 16 16 16 16 15 15 15 14
11 12 12 12 13 13 14 14 15 15 16 16 16 16 16 16 16 16 16 16 16 16 16 15 15 15 16 16 16 16 17 17 17 17 17 17 17 17 16 16 16 15 15 14 14
11 12 12 12 13 13 14 14 15 15 16 16 16 16 16 16 16 16 16 16 16 16 16 15 15 16 16 16 16 16 17 17 17 17 16 17 17 17 16 15 16 16 15 14 14
11 11 12 12 13 13 14 14 15 15 16 16 16 16 16 16 16 16 16 16 16 16 16 15 16 16 16 16 16 17 17 17 17 17 17 17 16 16 16 16 16 16 14 14 13
11 11 12 12 13 13 14 14 15 15 16 16 16 16 16 16 16 16 15 15 15 15 15 15 15 16 16 16 17 17 17 17 18 17 17 17 16 16 16 16 16 15 15 15 14
11 12 12 12 12 13 14 14 14 15 15 16 16 16 16 15 16 16 15 15 14 14 14 15 15 15 16 16 17 17 16 17 18 18 17 17 17 15 16 15 16 16 15 16 14
11 12 12 12 12 13 13 13 14 14 15 15 16 15 16 15 16 16 15 15 15 15 14 15 16 17 16 17 17 17 17 18 18 18 17 17 17 15 15 15 16 15 15 15 14
11 12 12 12 12 13 13 13 14 15 15 15 15 15 16 15 15 15 16 16 15 15 15 16 17 17 17 17 17 17 17 18 18 17 17 16 16 16 15 16 16 15 15 15 15
11 12 12 12 12 12 13 13 14 15 15 16 15 15 15 16 15 15 16 15 15 16 16 16 17 17 17 17 17 17 17 17 17 17 17 17 15 15 15 15 14 14 14 14 15
11 12 12 12 12 13 13 13 14 14 15 16 16 15 15 15 16 15 15 16 16 15 16 16 17 17 17 17 17 17 17 17 17 17 17 16 15 14 14 14 14 14 14 14 14
11 12 12 12 12 12 13 13 13 14 12 16 16 16 16 15 16 16 15 15 16 15 15 16 17 17 17 17 17 17 17 17 17 17 17 17 16 15 13 14 14 13 13 13 13
11 12 12 12 12 13 13 13 13 13 14 16 16 16 15 15 15 15 15 15 15 15 16 16 16 16 17 17 17 17 16 17 16 16 15 16 15 15 14 16 14 13 13 12 12
11 12 12 12 12 13 12 12 12 13 15 16 16 16 16 16 15 16 15 15 15 15 16 16 16 16 16 16 17 17 16 15 13 11 12 15 15 16 16 16 15 15 13 12 12
11 12 12 12 13 13 12 12 12 15 15 15 16 16 16 16 15 16 15 15 15 15 16 16 17 17 17 17 17 16 16 15 13 10 12 15 14 16 16 15 15 14 13 12 12
11 12 12 12 13 12 12 11 14 15 14 15 16 16 15 15 16 15 16 16 16 16 16 16 16 17 17 16 16 16 15 15 15 13 12 14 14 15 16 16 14 13 12 12 12
11 12 11 12 12 12 12 13 13 14 14 15 15 16 16 15 15 16 16 16 16 16 17 17 16 16 16 16 16 16 15 15 15 11 12 13 13 14 15 14 13 12 12 12 13
11 11 11 11 11 11 12 13 14 14 14 14 15 15 15 15 16 15 16 16 16 16 16 16 16 16 16 16 16 15 15 15 14 14 9 8 13 15 15 15 14 13 13 13 12
10 10 10 11 10 11 12 13 12 13 13 13 14 14 15 15 15 15 15 16 16 16 16 16 16 16 15 15 15 15 15 15 15 13 14 13 14 15 14 14 14 14 13 12 12
10 9 9 9 9 10 10 11 11 12 13 13 13 14 14 14 14 15 15 15 16 16 16 16 16 15 14 14 15 15 15 15 14 14 14 12 14 14 14 13 13 12 12 12 12
9 8 8 8 8 8 9 10 11 11 13 13 13 13 13 14 14 14 14 15 15 15 15 16 16 16 15 15 14 14 14 14 14 13 13 13 14 14 13 13 12 12 12 12 12
8 8 8 8 8 8 8 9 10 11 11 12 13 13 13 13 13 13 14 14 14 15 14 15 15 14 14 14 14 14 14 13 13 13 12 13 13 13 13 13 13 13 12 12 12
7 7 7 7 8 8 8 9 8 10 11 11 12 12 12 12 13 13 13 13 13 13 13 14 14 14 13 13 13 13 13 12 12 12 12 12 12 13 12 12 12 12 12 11 10
6 6 7 7 7 7 8 8 8 9 10 10 11 11 12 12 12 12 12 12 12 13 13 13 13 12 12 12 11 11 13 12 11 11 11 11 12 12 12 12 12 11 10 9 9

GFSSW_700_temp_132.txt.gz
Temp
10 11 11 12 12 13 13 13 13 14 14 14 15 15 15 15 15 15 15 15 15 15 15 15 15 16 16 16 15 16 16 17 17 16 16 16 15 16 16 16 16 15 15 15 15
10 11 11 12 12 12 13 13 13 14 14 14 15 15 15 15 15 15 15 15 15 15 15 15 16 16 16 16 16 16 16 16 17 16 16 16 16 16 16 16 15 15 15 15 15
10 11 11 12 12 12 13 14 14 14 14 15 15 15 15 15 15 16 16 15 15 15 15 16 16 16 16 15 16 16 16 17 17 17 17 16 16 16 16 16 15 15 15 15 15
10 11 11 12 12 12 13 14 14 15 15 15 15 15 15 15 15 16 16 16 15 15 15 16 16 16 15 15 15 16 16 16 17 16 17 16 17 16 16 16 15 14 14 15 14
10 11 11 12 12 13 13 14 14 15 15 15 15 15 15 15 15 16 16 16 15 15 15 15 16 15 15 16 16 16 16 16 17 16 16 17 17 17 16 16 16 15 14 14 14
10 11 11 12 12 13 13 14 14 15 15 15 15 15 15 15 16 16 16 16 15 15 15 15 14 15 15 16 16 16 16 16 17 17 17 17 16 16 17 16 16 15 14 13 13
10 11 11 12 12 13 13 14 14 15 15 15 15 15 15 15 16 16 16 16 15 15 15 14 14 15 15 16 16 16 16 17 17 17 17 16 16 16 16 16 16 16 14 13 12
10 11 11 12 12 13 13 14 14 15 15 15 15 15 15 16 16 16 16 16 16 15 14 14 15 15 16 16 16 16 17 17 17 17 16 16 16 16 16 16 16 16 15 14 13
10 11 11 12 12 12 13 14 14 14 15 15 15 15 15 15 16 16 16 16 16 15 15 15 15 16 16 16 16 17 17 17 17 17 17 16 16 16 16 16 15 16 16 14 14
10 11 11 12 12 12 13 13 14 14 15 15 15 15 15 15 15 16 16 16 15 15 15 15 15 16 16 16 17 16 16 16 17 17 17 17 16 16 16 16 15 16 16 16 14
11 11 11 12 12 12 12 13 14 14 15 15 15 15 15 15 15 15 15 15 15 15 15 14 15 16 16 16 17 17 17 17 17 17 17 17 17 16 16 16 15 15 16 16 15
11 11 11 12 12 12 12 13 13 14 15 15 15 15 15 15 15 14 14 14 15 14 15 15 16 16 16 16 17 17 17 17 17 17 17 17 16 16 16 16 15 15 15 16 15
11 11 11 12 12 12 12 13 13 14 14 15 15 15 15 15 15 15 15 14 15 15 15 16 16 16 16 16 16 17 17 17 17 17 17 17 15 16 15 15 14 14 14 15 15
11 11 11 11 12 12 12 12 13 13 14 15 15 15 15 15 15 14 15 15 15 15 15 16 16 17 17 17 17 17 17 17 17 17 17 15 14 15 15 15 14 14 14 14 14
11 11 11 11 12 12 12 12 12 12 10 16 15 15 15 15 15 15 14 14 15 15 15 16 16 17 17 17 16 16 16 17 17 17 16 15 15 16 14 14 15 14 13 13 13
11 11 11 12 11 12 12 11 11 12 12 15 15 15 15 15 15 15 14 14 15 15 15 16 16 16 16 17 16 16 16 16 16 16 14 15 15 15 16 17 15 14 13 13 13
11 11 12 12 11 12 12 11 11 11 14 15 15 15 15 15 15 15 15 15 15 15 15 16 16 16 16 16 16 16 16 15 13 11 11 14 14 16 16 16 15 15 14 13 13
11 11 12 11 12 12 11 10 11 14 14 15 15 15 15 15 15 15 15 15 15 15 15 16 16 16 16 16 16 16 16 15 12 9 12 14 14 15 16 15 15 14 13 13 12
11 11 11 11 12 12 11 10 12 14 14 14 15 15 15 15 15 15 15 15 15 15 15 16 16 16 16 16 16 16 16 15 15 12 11 14 14 15 16 17 17 14 13 13 12
10 11 11 11 12 11 11 11 13 13 14 14 15 15 15 15 15 15 15 16 15 15 15 16 16 16 16 16 16 16 16 15 14 11 11 12 14 15 15 15 15 14 12 12 12
10 10 11 11 11 11 10 11 12 13 13 14 14 15 15 15 15 15 15 16 16 16 15 15 16 16 16 16 16 15 15 15 14 14 10 8 13 15 15 15 15 14 12 12 13
9 9 10 10 10 10 11 12 12 12 13 13 14 14 15 15 15 15 15 16 16 16 16 16 16 15 16 16 16 15 15 15 15 13 13 13 14 15 15 15 14 13 12 13 12
9 9 9 9 9 10 11 11 10 11 12 12 13 14 14 14 14 15 15 15 15 16 16 16 15 15 14 14 14 15 15 15 15 14 14 12 14 15 14 14 14 13 13 12 12
8 8 8 8 8 9 9 9 10 10 12 12 13 13 13 14 14 14 14 15 15 16 15 16 15 15 15 15 15 14 14 14 14 14 14 14 14 14 14 14 13 13 13 12 12
7 7 7 7 7 8 8 8 9 10 11 11 12 13 13 13 13 14 14 14 14 14 15 15 15 15 15 15 14 14 14 13 13 13 13 13 13 13 13 12 12 12 13 12 12
5 6 7 6 7 7 7 8 9 9 10 10 11 12 12 13 13 13 13 14 14 14 14 14 14 14 14 14 13 13 13 13 13 13 12 12 12 12 12 12 12 12 12 12 12
5 5 6 6 6 7 7 7 8 9 9 10 11 11 12 12 12 12 13 13 13 13 13 13 13 13 13 13 13 12 13 13 13 13 12 11 12 12 12 12 12 12 12 12 11

GFSSW_700_temp_135.txt.gz
Temp
10 10 11 11 12 12 12 13 13 14 14 14 14 14 14 15 15 15 15 15 14 15 15 15 15 15 15 16 16 16 16 16 16 16 16 15 15 15 15 15 15 15 15 15 15
10 10 11 11 12 12 12 13 13 14 14 14 14 14 14 15 15 15 15 15 15 15 15 15 15 15 15 15 16 16 17 17 16 16 16 16 15 15 15 15 15 15 15 15 14
10 10 11 11 11 12 13 13 13 14 14 14 14 14 14 15 15 15 15 15 15 15 15 15 15 15 15 16 16 17 17 17 16 17 17 16 16 15 15 15 14 14 15 15 15
10 10 10 11 12 12 13 13 14 14 14 15 15 15 15 15 15 15 15 15 15 15 15 15 15 15 16 16 16 16 17 17 17 17 17 16 16 15 15 15 14 14 15 14 14
10 10 11 11 12 12 13 13 14 14 15 15 15 15 15 15 15 16 15 15 15 15 15 15 15 15 16 16 16 16 16 17 17 16 17 16 16 15 15 15 15 14 14 13 13
10 10 11 11 12 12 13 13 14 14 15 15 15 15 15 15 16 16 16 15 15 15 15 15 15 15 16 16 16 16 16 16 17 16 16 17 16 16 15 15 15 14 14 13 13
10 10 11 11 11 12 13 13 14 14 15 15 15 15 15 15 16 16 16 15 15 15 15 15 15 15 16 16 16 16 16 17 17 17 16 16 16 16 16 15 15 14 13 13 12
10 10 11 11 11 12 13 13 14 14 14 15 15 15 15 15 15 16 16 16 16 15 15 15 15 15 15 16 16 16 16 16 16 17 16 16 16 16 16 15 16 14 13 12 12
10 10 11 11 11 12 12 13 13 14 14 15 15 15 15 15 15 15 15 15 15 15 15 15 15 15 16 16 16 16 16 17 16 17 17 16 16 16 16 16 15 15 14 13 12
10 10 11 11 11 12 12 13 13 14 14 15 15 15 15 15 15 15 15 15 15 15 15 15 15 15 16 16 17 16 16 16 17 16 17 17 17 17 16 16 15 16 15 14 13
10 10 11 11 11 12 12 13 13 14 14 14 15 15 15 15 15 15 15 15 15 14 14 14 15 16 16 16 16 17 16 16 17 17 17 17 17 17 17 16 15 16 15 15 14
10 10 11 11 11 12 12 12 13 13 14 14 15 15 15 15 15 15 15 15 15 15 15 15 16 15 16 16 17 17 17 16 17 17 17 17 17 17 17 16 15 15 15 15 14
10 10 10 11 11 11 12 12 12 13 13 14 15 15 15 15 15 15 15 15 14 15 15 15 15 16 16 16 17 17 16 17 17 17 17 17 16 16 16 16 16 15 15 15 14
10 10 11 11 11 11 12 12 12 12 13 15 15 15 15 14 14 15 14 14 14 14 15 15 15 16 16 17 16 16 16 16 16 16 17 16 17 17 16 16 16 15 15 15 15
10 10 11 11 11 11 11 11 11 11 13 15 15 15 14 14 15 14 14 14 14 15 15 15 16 16 16 17 17 16 16 16 16 16 16 16 16 17 17 16 17 15 14 14 14
10 11 11 11 11 11 11 11 10 11 12 14 14 14 14 14 14 15 14 13 14 14 15 15 15 16 16 16 16 16 16 16 16 16 16 15 15 16 16 17 17 16 15 14 14
10 11 11 11 11 11 11 10 10 11 14 14 14 14 14 14 14 14 14 14 14 14 15 15 16 16 16 16 16 16 16 16 16 16 16 14 14 15 16 16 16 16 15 14 13
10 10 11 11 11 11 11 9 9 13 14 14 14 14 14 14 14 14 14 14 14 14 15 15 16 16 16 16 16 16 16 17 15 16 16 14 14 16 16 16 16 16 14 13 13
10 10 11 11 11 11 10 9 11 13 13 14 14 14 13 14 14 14 14 14 15 15 15 15 16 16 16 16 16 16 15 16 15 13 14 13 14 15 15 15 16 16 15 13 13
10 10 10 11 11 10 10 10 12 13 13 13 14 14 14 14 14 14 14 15 15 15 15 15 15 16 16 16 16 16 16 15 15 15 15 15 14 15 15 15 16 16 15 14 13
9 10 10 10 10 10 10 11 12 12 13 13 14 14 15 15 14 15 15 15 15 15 15 15 15 15 15 15 16 15 15 15 15 15 16 15 15 15 15 15 15 15 15 14 13
8 9 9 10 10 10 10 11 12 12 12 13 13 14 14 15 15 15 15 15 15 15 15 15 15 15 15 16 16 15 16 16 16 13 14 13 15 15 15 15 14 14 14 14 13
7 8 9 9 9 9 10 11 11 11 12 12 12 13 13 14 14 15 15 15 15 16 16 16 15 15 15 15 15 15 15 15 15 15 14 14 15 15 15 15 14 14 14 14 13
6 7 8 8 8 8 9 9 10 10 11 11 12 13 13 14 14 14 15 15 15 15 16 15 15 15 16 16 15 15 15 15 15 14 15 14 15 14 14 14 14 14 14 13 12
5 6 7 7 7 7 8 8 9 9 10 11 12 12 13 13 14 14 15 15 15 15 15 15 15 15 15 15 15 15 15 15 14 14 14 14 14 14 13 13 13 13 12 12 12
4 5 6 6 7 7 7 7 8 8 10 10 11 12 12 13 13 14 14 14 15 15 15 14 14 14 14 14 14 14 14 14 13 13 13 13 13 12 12 12 12 12 12 12 12
4 4 5 5 5 6 7 7 7 8 8 9 10 11 12 12 12 13 13 14 14 14 14 14 14 14 12 13 12 12 13 13 13 13 13 12 12 12 12 12 12 12 12 12 12

GFSSW_700_temp_138.txt.gz
Temp
10 10 11 11 11 12 12 13 13 14 14 14 14 14 14 14 14 14 14 14 14 14 15 15 15 15 15 15 16 17 18 18 17 17 16 15 15 15 14 15 14 14 14 14 13
10 10 11 11 11 12 12 12 13 13 14 14 14 14 14 14 15 15 15 15 15 15 15 15 15 15 15 16 16 17 18 17 17 16 17 16 15 14 14 14 15 15 15 14 14
10 10 11 11 11 11 12 13 13 13 14 14 14 14 14 14 14 15 15 15 15 15 15 15 15 15 15 16 17 17 17 17 17 17 16 16 15 14 15 14 15 15 15 14 14
10 10 11 11 11 12 12 13 13 14 14 14 14 14 14 14 14 15 15 15 15 15 15 15 15 15 16 16 17 17 17 17 17 17 16 16 15 15 14 14 14 15 14 14 14
10 10 11 11 11 12 12 13 13 14 14 14 14 14 14 14 15 15 16 15 15 15 15 15 15 15 16 16 17 17 16 17 17 17 16 16 15 15 15 14 14 15 14 14 14
10 10 11 11 11 12 12 13 13 14 14 15 15 14 14 13 15 15 16 15 15 15 15 15 14 15 15 16 17 17 17 17 17 17 16 16 15 15 15 15 14 14 14 13 13
10 10 11 11 11 12 12 13 13 14 14 15 15 15 14 15 15 15 15 15 15 15 15 15 15 15 16 16 16 17 17 17 17 17 16 16 15 15 15 15 14 14 14 13 12
10 10 11 11 11 12 12 13 13 14 14 15 15 15 15 15 15 15 15 15 15 15 15 15 15 16 16 16 16 17 17 18 17 17 17 16 17 16 15 15 15 13 13 13 12
10 10 10 11 11 12 12 13 13 14 14 14 15 15 14 15 15 15 15 15 15 15 15 15 15 15 16 16 17 17 19 19 18 17 17 17 17 17 16 15 15 14 13 13 12
10 10 10 11 11 12 12 12 13 14 14 14 14 14 15 15 15 16 15 15 15 15 15 15 14 15 16 17 19 19 19 18 18 17 17 17 18 17 16 15 15 15 13 13 12
10 10 10 11 11 12 12 12 13 13 14 14 14 14 15 15 15 15 15 15 15 15 14 14 15 16 17 17 17 17 17 18 18 17 17 18 18 16 15 14 15 15 14 12 12
10 10 10 11 11 12 12 12 12 13 13 14 14 14 15 15 15 15 15 14 14 14 14 14 16 17 16 16 16 17 17 17 17 16 17 18 18 16 15 15 14 14 14 12 13
10 10 10 11 11 11 12 12 12 12 13 14 14 14 14 15 13 15 15 14 14 15 14 16 17 15 15 16 16 17 18 18 18 16 17 17 17 16 15 15 14 14 14 13 13
10 10 10 10 11 11 12 12 11 12 12 14 15 15 15 14 13 13 14 14 14 15 15 16 15 15 16 17 17 18 17 17 17 17 19 17 20 18 17 15 16 14 14 14 13
10 10 10 10 11 11 11 11 11 11 16 15 15 15 14 14 15 14 14 13 15 15 14 16 15 16 16 17 17 18 16 17 17 18 18 17 18 19 17 17 16 15 14 14 13
10 11 10 11 10 11 11 11 11 11 15 14 14 14 14 14 14 14 14 13 14 15 15 16 15 16 17 17 17 17 16 16 17 18 18 18 18 19 18 17 17 16 14 14 13
10 10 11 10 10 11 10 10 11 13 14 14 14 14 14 14 14 14 13 13 14 14 15 15 16 16 16 16 16 16 17 18 19 19 20 16 17 18 17 16 16 16 15 13 13
9 10 11 10 10 10 10 9 12 13 14 14 14 14 15 15 15 14 14 14 15 16 17 17 17 16 16 17 17 17 18 19 18 20 19 16 17 17 16 16 16 16 14 13 12
9 10 10 10 10 10 10 10 12 13 13 13 14 14 15 15 15 14 15 15 15 15 17 17 18 17 16 16 17 17 17 17 18 17 18 18 17 16 15 15 16 16 16 14 13
9 9 10 10 10 10 9 10 12 12 12 13 14 15 15 15 14 15 15 15 15 15 16 17 17 16 16 16 16 16 17 17 17 18 18 18 17 17 16 15 15 16 16 13 13
8 9 10 10 10 9 9 10 11 11 12 12 14 15 15 15 15 15 16 16 15 15 15 16 16 16 15 16 17 16 16 17 18 17 19 19 19 16 15 15 15 15 15 15 15
7 7 9 9 9 9 9 10 11 10 11 12 13 13 14 16 15 16 16 16 15 16 15 15 16 17 16 16 16 17 17 17 17 17 17 16 17 16 15 15 15 14 14 15 15
6 7 8 8 8 8 9 10 9 10 11 12 12 12 13 14 15 16 16 16 15 15 15 15 16 17 16 15 15 15 16 16 17 16 17 17 18 16 15 15 14 14 14 14 14
5 5 7 8 7 8 9 9 9 9 10 11 12 12 13 13 14 15 16 15 15 15 15 15 16 16 18 17 17 16 16 16 16 17 17 17 16 15 14 14 14 14 14 14 14
4 3 6 6 6 6 7 9 9 10 9 10 11 11 13 14 14 14 15 13 15 15 15 15 15 16 16 17 17 17 16 16 16 16 17 17 17 15 13 13 13 13 13 13 13
3 3 5 5 6 6 6 7 9 10 9 10 10 12 12 13 14 14 14 14 14 15 15 15 15 15 16 15 15 16 16 16 15 16 16 16 15 14 13 13 13 13 13 13 13
2 3 4 3 4 5 6 7 7 8 8 9 9 9 11 12 13 13 14 14 14 14 14 14 14 14 16 14 14 15 15 15 15 15 14 14 14 13 12 12 12 12 13 13 12

GFSSW_700_temp_141.txt.gz
Temp
11 11 11 11 11 12 12 13 13 13 14 14 14 14 15 15 15 15 14 14 15 15 15 15 15 16 16 15 17 17 20 20 19 19 18 17 17 15 14 14 13 13 12 12 12
10 11 11 11 11 12 12 12 13 13 13 14 14 14 15 15 15 15 15 15 15 15 15 15 15 16 15 17 17 18 20 19 19 19 18 18 17 16 15 14 13 13 14 13 12
10 10 11 11 11 11 12 12 13 13 13 13 14 14 14 15 15 14 15 15 15 15 15 15 15 15 17 18 18 19 19 19 18 18 18 17 17 17 16 15 13 15 15 14 13
10 10 11 11 11 11 12 12 13 13 14 14 14 14 14 14 14 15 15 15 15 15 15 15 15 16 17 18 18 19 18 19 18 18 18 18 17 17 16 15 14 15 15 14 13
10 10 11 11 11 12 12 12 13 14 14 14 14 14 14 14 13 15 16 16 15 16 16 15 15 16 18 18 18 19 18 18 18 18 18 17 17 16 15 14 14 14 14 14 11
10 10 11 11 11 12 12 12 13 14 14 14 14 14 14 13 14 15 16 16 15 16 15 15 16 17 18 18 18 18 18 18 18 18 18 18 17 16 14 13 14 14 13 11 10
10 10 10 11 11 12 12 12 13 14 14 14 14 14 14 13 15 15 16 16 15 15 14 15 15 16 17 18 18 18 19 19 19 18 18 18 17 16 14 13 14 13 11 11 11
10 10 10 11 11 12 12 12 13 14 14 14 14 14 14 14 15 15 16 16 15 14 14 14 14 15 17 17 18 18 19 20 19 18 18 17 16 16 14 14 13 12 12 11 12
10 10 10 11 11 11 12 12 13 13 14 14 14 14 13 15 15 15 15 15 15 15 14 15 16 16 17 18 19 19 20 21 19 19 18 18 16 16 15 14 14 13 12 11 12
10 10 11 11 11 11 12 12 13 13 14 14 14 14 15 15 15 15 15 14 15 14 14 15 15 16 17 18 20 21 21 21 20 19 19 19 18 17 16 16 14 14 12 12 11
10 10 10 11 11 11 12 12 13 13 13 14 14 14 13 14 16 15 15 15 14 14 15 15 16 18 19 19 20 20 21 21 20 19 19 19 18 17 16 16 15 14 13 13 12
10 10 10 11 11 11 11 12 11 12 13 13 13 13 13 15 15 15 15 14 14 15 16 16 17 19 19 19 19 19 20 20 20 19 19 20 20 18 17 17 16 15 14 14 13
10 10 10 11 11 11 11 11 12 12 12 14 14 14 15 14 15 14 16 15 15 16 17 18 19 19 19 18 18 19 19 20 20 19 19 19 20 19 18 17 17 16 15 14 13
10 10 10 10 11 11 11 11 11 12 12 15 14 14 14 14 15 14 15 15 16 17 17 18 18 18 18 18 18 19 19 20 20 19 20 19 21 19 18 17 17 17 16 15 14
10 10 10 10 11 11 11 11 11 11 16 17 15 15 15 14 16 15 14 15 16 17 17 18 18 17 18 19 19 20 19 19 19 19 20 20 20 21 19 18 17 17 17 16 15
10 10 10 11 11 11 11 11 10 11 16 16 15 15 15 15 16 16 15 15 16 17 17 19 18 18 18 19 19 19 18 19 19 19 21 20 20 21 20 19 19 18 17 16 15
9 10 10 10 10 11 10 10 10 13 16 17 16 15 16 16 16 16 15 15 16 16 17 17 18 18 18 19 18 18 19 19 20 21 21 21 20 20 20 19 18 18 17 17 16
9 9 10 10 10 10 10 9 12 14 16 17 17 16 16 17 17 16 16 16 16 17 18 18 18 18 18 18 18 18 19 21 21 22 22 19 20 20 18 17 17 16 16 16 16
8 9 10 10 10 10 10 10 12 15 16 17 17 17 17 17 17 16 16 16 17 17 18 19 19 18 18 18 18 18 19 20 20 21 21 21 19 18 18 17 17 16 16 16 16
8 8 9 10 10 9 9 11 12 14 15 15 16 17 17 17 17 17 17 17 17 17 18 19 19 19 18 18 18 19 19 19 19 20 20 21 20 20 17 17 16 16 15 16 15
7 8 7 9 9 9 9 11 12 14 14 14 15 17 17 18 18 18 17 18 17 18 17 18 19 19 18 18 18 18 18 19 20 20 22 22 21 18 17 16 16 16 15 15 14
6 6 7 8 8 8 10 11 12 13 13 13 14 15 17 18 18 18 18 18 18 18 17 18 18 19 18 18 18 19 18 18 19 19 19 19 20 18 17 16 16 16 15 15 14
5 5 6 7 7 9 10 11 12 13 13 13 13 14 15 16 17 18 17 18 17 17 18 17 18 19 19 18 18 18 18 19 19 19 19 20 20 17 16 16 16 15 15 14 14
4 5 5 7 7 9 11 11 12 12 12 13 14 14 15 15 16 17 17 18 17 17 17 17 18 18 19 19 18 17 18 18 18 19 19 19 19 17 16 16 16 14 14 14 13
3 4 5 7 7 8 9 11 11 12 11 12 13 14 14 15 16 16 17 17 16 16 17 16 17 17 18 19 19 19 18 18 18 18 18 19 19 19 16 15 15 14 14 14 13
1 1 3 3 4 6 8 9 11 12 12 12 12 13 13 14 15 16 16 17 16 16 16 16 17 17 18 18 19 19 19 19 18 18 18 18 18 18 15 14 15 13 12 12 12
-2 1 2 3 5 6 7 8 10 11 12 12 12 12 13 14 15 15 16 17 16 15 15 16 16 16 17 18 18 17 17 18 18 18 18 17 17 17 14 13 13 13 12 12 12

GFSSW_700_temp_144.txt.gz
Temp
11 11 11 11 12 12 12 13 13 13 14 14 15 15 15 15 15 15 15 15 15 15 15 16 16 17 17 17 17 18 19 21 20 19 19 18 17 16 15 15 14 13 11 10 11
10 11 11 11 11 11 12 12 13 13 13 14 14 15 15 15 15 16 15 15 15 15 15 16 16 17 16 17 18 19 20 20 20 19 18 18 17 16 15 15 13 12 13 10 9
10 10 11 11 11 11 12 12 12 13 13 13 14 14 15 15 15 16 16 15 15 15 15 15 15 16 17 18 19 20 20 20 19 19 19 18 17 16 16 15 13 15 14 12 9
10 10 10 11 11 11 12 12 12 13 13 14 14 14 14 15 14 14 16 16 16 16 16 16 15 16 17 19 19 20 20 20 19 19 19 18 17 17 15 14 13 15 14 13 10
11 10 10 11 11 11 12 12 12 13 13 14 14 14 14 14 14 15 16 16 16 16 16 16 15 17 18 20 19 20 19 19 19 19 19 18 17 16 15 14 13 15 14 12 10
11 11 11 11 11 11 12 12 13 13 13 14 14 14 14 15 14 15 16 16 16 16 16 15 16 17 18 19 19 20 19 20 19 19 19 18 17 16 14 13 12 14 12 11 10
10 11 11 11 11 11 12 12 13 13 14 14 14 14 14 14 14 16 16 16 16 16 16 15 16 17 18 19 19 19 19 20 19 19 19 18 16 15 14 13 13 12 11 11 11
10 11 11 11 11 11 12 12 13 13 14 14 14 14 14 15 15 16 16 16 16 16 15 16 16 16 17 19 19 19 20 20 20 19 19 18 13 15 14 14 13 12 12 11 11
11 10 11 11 11 11 11 12 13 13 13 14 14 14 14 15 15 16 16 16 16 15 15 16 15 16 17 18 19 20 20 21 20 20 19 18 17 16 15 14 14 13 12 12 11
11 11 11 11 11 11 11 12 13 13 13 14 14 14 16 16 16 16 15 14 14 14 15 15 15 16 17 19 20 21 21 21 20 20 20 19 17 14 16 15 14 14 13 12 11
10 11 11 11 11 11 11 12 13 13 13 14 14 15 15 15 15 16 15 14 14 15 15 15 16 17 18 19 20 21 22 21 21 20 20 19 17 17 17 17 15 14 13 13 12
10 10 11 11 11 11 11 12 10 11 12 14 14 14 15 15 14 15 14 14 14 15 16 17 17 18 19 20 20 21 21 22 21 20 20 19 18 18 18 18 16 15 14 13 13
11 10 10 11 11 11 11 11 11 12 11 14 14 14 15 14 15 15 15 15 15 16 17 18 19 19 19 20 20 20 21 21 21 21 20 20 20 19 18 18 17 14 15 14 13
10 11 10 10 11 11 11 11 11 11 11 15 15 15 15 15 15 16 16 16 16 17 17 18 19 20 20 20 20 20 20 21 21 21 20 20 21 19 19 18 17 17 15 15 14
10 10 10 10 10 10 9 11 11 11 14 17 17 16 15 15 17 16 15 15 17 17 18 19 19 20 20 19 20 20 20 20 21 21 20 21 21 21 20 19 18 18 17 16 15
9 10 10 10 10 10 11 11 11 11 14 18 17 16 16 16 16 17 16 16 17 18 18 19 19 19 19 19 20 20 20 20 20 20 21 21 21 22 20 20 19 18 18 16 16
9 9 10 10 10 10 10 10 10 12 15 18 17 17 17 17 17 17 16 16 16 17 18 19 19 19 19 19 20 20 20 20 20 20 21 21 21 21 19 20 19 19 18 18 16
8 9 10 10 10 10 10 9 11 13 15 18 18 17 17 17 17 18 17 16 16 18 19 19 19 19 19 19 20 20 20 20 20 21 22 22 22 21 20 19 19 18 18 17 17
8 8 10 9 9 9 9 9 11 13 15 16 18 18 17 18 18 18 18 17 17 17 18 19 19 20 19 19 20 20 19 20 21 22 21 21 21 20 19 18 18 18 17 17 17
7 7 9 9 9 9 8 9 12 13 14 16 18 18 19 18 18 18 18 18 17 18 18 19 20 20 20 19 19 20 19 20 20 20 20 22 21 20 18 18 18 17 17 17 17
6 7 7 9 9 8 8 10 11 13 14 15 16 17 18 19 18 19 19 18 18 18 18 19 20 20 20 19 19 19 20 20 20 21 22 22 18 18 18 18 17 17 16 16 16
5 5 6 6 7 7 8 10 11 12 13 14 15 16 17 18 19 19 19 19 19 18 18 18 19 20 21 20 19 20 20 19 20 20 20 20 17 19 17 17 17 17 16 15 16
4 5 5 5 6 8 9 9 11 12 13 14 15 15 16 16 17 19 19 19 19 19 19 19 19 19 20 20 19 19 19 19 19 19 20 20 20 18 17 17 16 16 15 15 16
3 4 6 6 6 7 10 10 11 12 13 14 15 15 15 15 16 17 19 19 19 19 19 19 19 19 20 20 20 19 19 19 20 20 20 20 18 18 18 17 16 15 15 15 15
1 4 5 6 7 7 8 9 11 12 13 13 14 15 15 15 16 17 18 19 19 19 18 18 18 19 19 20 20 20 19 19 19 19 20 20 20 19 17 17 16 15 15 15 15
1 0 1 2 4 5 7 8 10 12 13 14 14 14 15 15 16 16 17 18 19 18 18 18 18 18 18 19 19 20 20 19 19 19 19 19 19 17 17 16 15 15 14 14 14
-2 -3 -3 3 2 5 7 9 10 11 13 13 13 13 14 15 15 16 16 17 18 18 17 17 18 17 18 18 19 19 20 20 19 19 19 19 19 17 16 14 14 13 13 13 13